Wetterdaten: Donnerstag, 19.11.2015
Datum Zeit Temp. Aussen Temp. o. S. +5cm Feuchte Auss BlattFeu 1 Luftdruck Regen Sonnenschein Regendauer Solar Windben Empfang
19.11.2015 00:00 13,7 C 13,9 C 12,2 C 77 % 0 lf 1010,7 hPa 0,0 l/m 0 min 0 min 0 W/m 48,1 km/h (6 Bft) 97,14 %
19.11.2015 00:02 13,7 C 13,9 C 12,2 C 77 % 0 lf 1010,7 hPa 0,0 l/m 0 min 0 min 0 W/m 37,7 km/h (5 Bft) 93,33 %
19.11.2015 00:05 13,7 C 13,9 C 11,7 C 77 % 0 lf 1010,6 hPa 0,0 l/m 0 min 0 min 0 W/m 37,7 km/h (5 Bft) 96,59 %
19.11.2015 00:06 13,7 C 13,3 C 11,7 C 78 % 0 lf 1010,6 hPa 0,0 l/m 0 min 0 min 0 W/m 39,7 km/h (6 Bft) 100,00 %
19.11.2015 00:08 13,7 C 13,3 C 11,7 C 79 % 0 lf 1010,7 hPa 0,0 l/m 0 min 0 min 0 W/m 39,7 km/h (6 Bft) 93,62 %
19.11.2015 00:10 13,7 C 13,3 C 11,7 C 80 % 0 lf 1010,7 hPa 0,0 l/m 0 min 0 min 0 W/m 41,8 km/h (6 Bft) 97,83 %
19.11.2015 00:12 13,7 C 13,3 C 11,7 C 81 % 0 lf 1010,7 hPa 0,0 l/m 0 min 0 min 0 W/m 50,2 km/h (7 Bft) 97,87 %
19.11.2015 00:14 13,6 C 13,3 C 11,7 C 83 % 0 lf 1010,7 hPa 0,0 l/m 0 min 0 min 0 W/m 37,7 km/h (5 Bft) 100,00 %
19.11.2015 00:16 13,6 C 12,8 C 11,7 C 83 % 0 lf 1010,7 hPa 0,0 l/m 0 min 0 min 0 W/m 35,6 km/h (5 Bft) 95,74 %
19.11.2015 00:18 13,5 C 12,8 C 11,1 C 84 % 0 lf 1010,8 hPa 0,0 l/m 0 min 0 min 0 W/m 29,3 km/h (5 Bft) 100,00 %
19.11.2015 00:20 13,4 C 12,8 C 11,1 C 84 % 0 lf 1010,8 hPa 0,0 l/m 0 min 0 min 0 W/m 31,4 km/h (5 Bft) 100,00 %
19.11.2015 00:22 13,4 C 12,8 C 11,1 C 85 % 0 lf 1010,8 hPa 0,0 l/m 0 min 0 min 0 W/m 27,2 km/h (4 Bft) 97,83 %
19.11.2015 00:24 13,3 C 12,8 C 11,1 C 85 % 0 lf 1010,8 hPa 0,0 l/m 0 min 0 min 0 W/m 35,6 km/h (5 Bft) 97,87 %
19.11.2015 00:26 13,2 C 12,8 C 11,1 C 86 % 0 lf 1010,8 hPa 0,0 l/m 0 min 0 min 0 W/m 35,6 km/h (5 Bft) 97,87 %
19.11.2015 00:28 13,2 C 12,8 C 11,1 C 86 % 0 lf 1010,8 hPa 0,0 l/m 0 min 0 min 0 W/m 31,4 km/h (5 Bft) 97,87 %
19.11.2015 00:30 13,2 C 12,8 C 11,1 C 87 % 0 lf 1010,9 hPa 0,0 l/m 0 min 0 min 0 W/m 41,8 km/h (6 Bft) 97,87 %
19.11.2015 00:32 13,1 C 12,8 C 11,1 C 87 % 0 lf 1011,0 hPa 0,0 l/m 0 min 0 min 0 W/m 35,6 km/h (5 Bft) 97,87 %
19.11.2015 00:34 13,0 C 12,8 C 11,1 C 88 % 0 lf 1011,0 hPa 0,0 l/m 0 min 0 min 0 W/m 46,0 km/h (6 Bft) 95,65 %
19.11.2015 00:36 13,0 C 12,8 C 11,1 C 88 % 0 lf 1011,0 hPa 0,0 l/m 0 min 0 min 0 W/m 46,0 km/h (6 Bft) 97,87 %
19.11.2015 00:38 12,9 C 12,8 C 11,1 C 88 % 0 lf 1011,0 hPa 0,0 l/m 0 min 0 min 0 W/m 37,7 km/h (5 Bft) 100,00 %
19.11.2015 00:40 12,9 C 12,8 C 11,1 C 89 % 0 lf 1011,1 hPa 0,0 l/m 0 min 0 min 0 W/m 37,7 km/h (5 Bft) 97,87 %
19.11.2015 00:42 12,9 C 12,8 C 11,1 C 89 % 0 lf 1011,0 hPa 0,0 l/m 0 min 0 min 0 W/m 31,4 km/h (5 Bft) 97,87 %
19.11.2015 00:44 12,9 C 12,8 C 11,7 C 89 % 0 lf 1011,0 hPa 0,0 l/m 0 min 0 min 0 W/m 56,5 km/h (7 Bft) 97,87 %
19.11.2015 00:46 12,9 C 12,8 C 11,7 C 89 % 0 lf 1011,0 hPa 0,0 l/m 0 min 0 min 0 W/m 35,6 km/h (5 Bft) 97,83 %
19.11.2015 00:48 12,9 C 12,8 C 11,7 C 89 % 0 lf 1011,0 hPa 0,0 l/m 0 min 0 min 0 W/m 35,6 km/h (5 Bft) 97,87 %
19.11.2015 00:50 12,9 C 12,8 C 11,7 C 89 % 0 lf 1011,0 hPa 0,0 l/m 0 min 0 min 0 W/m 35,6 km/h (5 Bft) 95,74 %
19.11.2015 00:52 12,9 C 12,8 C 11,7 C 90 % 0 lf 1011,0 hPa 0,0 l/m 0 min 0 min 0 W/m 41,8 km/h (6 Bft) 93,62 %
19.11.2015 00:54 12,9 C 13,3 C 11,7 C 90 % 0 lf 1011,0 hPa 0,0 l/m 0 min 0 min 0 W/m 33,5 km/h (5 Bft) 93,62 %
19.11.2015 00:56 12,9 C 12,8 C 11,7 C 90 % 0 lf 1010,9 hPa 0,0 l/m 0 min 0 min 0 W/m 31,4 km/h (5 Bft) 97,87 %
19.11.2015 00:58 12,9 C 13,3 C 11,7 C 90 % 0 lf 1011,0 hPa 0,0 l/m 0 min 0 min 0 W/m 43,9 km/h (6 Bft) 97,83 %
19.11.2015 01:00 13,0 C 12,8 C 11,7 C 90 % 0 lf 1011,0 hPa 0,0 l/m 0 min 0 min 0 W/m 27,2 km/h (4 Bft) 97,87 %
19.11.2015 01:02 13,0 C 12,8 C 11,7 C 90 % 0 lf 1011,0 hPa 0,0 l/m 0 min 0 min 0 W/m 35,6 km/h (5 Bft) 97,87 %
19.11.2015 01:04 13,0 C 12,8 C 11,7 C 90 % 0 lf 1011,0 hPa 0,0 l/m 0 min 0 min 0 W/m 39,7 km/h (6 Bft) 97,87 %
19.11.2015 01:06 13,0 C 13,3 C 11,7 C 90 % 0 lf 1010,9 hPa 0,0 l/m 0 min 0 min 0 W/m 46,0 km/h (6 Bft) 97,87 %
19.11.2015 01:08 13,1 C 13,3 C 11,7 C 90 % 0 lf 1011,0 hPa 0,0 l/m 0 min 0 min 0 W/m 33,5 km/h (5 Bft) 95,65 %
19.11.2015 01:10 13,1 C 13,3 C 11,7 C 90 % 0 lf 1011,0 hPa 0,0 l/m 0 min 0 min 0 W/m 41,8 km/h (6 Bft) 97,87 %
19.11.2015 01:12 13,1 C 13,3 C 11,7 C 90 % 0 lf 1010,9 hPa 0,0 l/m 0 min 0 min 0 W/m 35,6 km/h (5 Bft) 97,87 %
19.11.2015 01:14 13,1 C 13,3 C 11,7 C 90 % 0 lf 1010,8 hPa 0,0 l/m 0 min 0 min 0 W/m 39,7 km/h (6 Bft) 100,00 %
19.11.2015 01:16 13,1 C 13,3 C 11,7 C 90 % 0 lf 1010,8 hPa 0,0 l/m 0 min 0 min 0 W/m 37,7 km/h (5 Bft) 97,87 %
19.11.2015 01:18 13,1 C 12,8 C 11,7 C 90 % 0 lf 1010,7 hPa 0,0 l/m 0 min 0 min 0 W/m 39,7 km/h (6 Bft) 97,87 %
19.11.2015 01:20 13,1 C 13,3 C 11,7 C 90 % 0 lf 1010,7 hPa 0,0 l/m 0 min 0 min 0 W/m 37,7 km/h (5 Bft) 97,83 %
19.11.2015 01:22 13,1 C 13,3 C 11,7 C 90 % 0 lf 1010,7 hPa 0,0 l/m 0 min 0 min 0 W/m 35,6 km/h (5 Bft) 97,87 %
19.11.2015 01:24 13,1 C 13,3 C 11,7 C 90 % 0 lf 1010,7 hPa 0,0 l/m 0 min 0 min 0 W/m 35,6 km/h (5 Bft) 95,74 %
19.11.2015 01:26 13,1 C 13,3 C 11,7 C 90 % 0 lf 1010,8 hPa 0,0 l/m 0 min 0 min 0 W/m 35,6 km/h (5 Bft) 100,00 %
19.11.2015 01:28 13,1 C 13,3 C 11,7 C 90 % 0 lf 1010,8 hPa 0,0 l/m 0 min 0 min 0 W/m 37,7 km/h (5 Bft) 100,00 %
19.11.2015 01:30 13,2 C 13,3 C 11,7 C 90 % 0 lf 1010,6 hPa 0,0 l/m 0 min 0 min 0 W/m 46,0 km/h (6 Bft) 97,87 %
19.11.2015 01:32 13,1 C 13,3 C 11,7 C 90 % 0 lf 1010,7 hPa 0,0 l/m 0 min 0 min 0 W/m 31,4 km/h (5 Bft) 95,65 %
19.11.2015 01:34 13,1 C 13,3 C 11,7 C 90 % 0 lf 1010,7 hPa 0,0 l/m 0 min 0 min 0 W/m 46,0 km/h (6 Bft) 100,00 %
19.11.2015 01:36 13,1 C 13,3 C 11,7 C 90 % 0 lf 1010,5 hPa 0,0 l/m 0 min 0 min 0 W/m 35,6 km/h (5 Bft) 97,87 %
19.11.2015 01:38 13,1 C 13,3 C 11,7 C 90 % 0 lf 1010,7 hPa 0,0 l/m 0 min 0 min 0 W/m 35,6 km/h (5 Bft) 100,00 %
19.11.2015 01:40 13,1 C 13,3 C 11,7 C 90 % 0 lf 1010,7 hPa 0,0 l/m 0 min 0 min 0 W/m 35,6 km/h (5 Bft) 100,00 %
19.11.2015 01:42 13,1 C 12,8 C 11,7 C 90 % 0 lf 1010,7 hPa 0,0 l/m 0 min 0 min 0 W/m 39,7 km/h (6 Bft) 97,87 %
19.11.2015 01:44 13,1 C 12,8 C 11,7 C 90 % 0 lf 1010,7 hPa 0,0 l/m 0 min 0 min 0 W/m 31,4 km/h (5 Bft) 95,65 %
19.11.2015 01:46 13,1 C 12,8 C 11,7 C 90 % 0 lf 1010,7 hPa 0,0 l/m 0 min 0 min 0 W/m 37,7 km/h (5 Bft) 97,87 %
19.11.2015 01:48 13,1 C 12,8 C 11,7 C 90 % 0 lf 1010,7 hPa 0,0 l/m 0 min 0 min 0 W/m 41,8 km/h (6 Bft) 100,00 %
19.11.2015 01:50 13,1 C 13,3 C 11,7 C 90 % 0 lf 1010,6 hPa 0,0 l/m 0 min 0 min 0 W/m 33,5 km/h (5 Bft) 95,74 %
19.11.2015 01:52 13,1 C 12,8 C 11,7 C 90 % 0 lf 1010,6 hPa 0,0 l/m 0 min 0 min 0 W/m 39,7 km/h (6 Bft) 97,87 %
19.11.2015 01:54 13,0 C 13,3 C 11,7 C 89 % 0 lf 1010,8 hPa 0,0 l/m 0 min 0 min 0 W/m 39,7 km/h (6 Bft) 100,00 %
19.11.2015 01:56 13,0 C 13,3 C 11,7 C 89 % 0 lf 1010,6 hPa 0,0 l/m 0 min 0 min 0 W/m 48,1 km/h (6 Bft) 95,65 %
19.11.2015 01:58 13,0 C 13,3 C 11,7 C 89 % 0 lf 1010,7 hPa 0,0 l/m 0 min 0 min 0 W/m 43,9 km/h (6 Bft) 95,74 %
19.11.2015 02:00 13,0 C 13,3 C 11,7 C 89 % 0 lf 1010,7 hPa 0,0 l/m 0 min 0 min 0 W/m 35,6 km/h (5 Bft) 97,87 %
19.11.2015 02:02 13,0 C 13,3 C 11,7 C 88 % 0 lf 1010,5 hPa 0,0 l/m 0 min 0 min 0 W/m 31,4 km/h (5 Bft) 100,00 %
19.11.2015 02:04 13,0 C 13,3 C 11,7 C 88 % 0 lf 1010,7 hPa 0,0 l/m 0 min 0 min 0 W/m 43,9 km/h (6 Bft) 97,87 %
19.11.2015 02:06 13,0 C 13,3 C 11,7 C 88 % 0 lf 1010,7 hPa 0,0 l/m 0 min 0 min 0 W/m 41,8 km/h (6 Bft) 97,83 %
19.11.2015 02:08 13,0 C 13,3 C 11,7 C 88 % 0 lf 1010,8 hPa 0,0 l/m 0 min 0 min 0 W/m 43,9 km/h (6 Bft) 93,62 %
19.11.2015 02:10 13,1 C 13,3 C 11,7 C 88 % 0 lf 1010,7 hPa 0,0 l/m 0 min 0 min 0 W/m 41,8 km/h (6 Bft) 95,74 %
19.11.2015 02:12 13,1 C 13,3 C 11,7 C 87 % 0 lf 1010,7 hPa 0,0 l/m 0 min 0 min 0 W/m 41,8 km/h (6 Bft) 95,74 %
19.11.2015 02:14 13,1 C 13,3 C 11,7 C 87 % 0 lf 1010,7 hPa 0,0 l/m 0 min 0 min 0 W/m 43,9 km/h (6 Bft) 95,74 %
19.11.2015 02:16 13,1 C 13,3 C 11,7 C 87 % 0 lf 1010,7 hPa 0,0 l/m 0 min 0 min 0 W/m 39,7 km/h (6 Bft) 93,62 %
19.11.2015 02:18 13,1 C 13,3 C 11,7 C 86 % 0 lf 1010,6 hPa 0,0 l/m 0 min 0 min 0 W/m 48,1 km/h (6 Bft) 93,48 %
19.11.2015 02:20 13,1 C 13,3 C 11,7 C 86 % 0 lf 1010,7 hPa 0,0 l/m 0 min 0 min 0 W/m 48,1 km/h (6 Bft) 93,62 %
19.11.2015 02:22 13,1 C 13,3 C 11,7 C 86 % 0 lf 1010,7 hPa 0,0 l/m 0 min 0 min 0 W/m 39,7 km/h (6 Bft) 91,49 %
19.11.2015 02:24 13,2 C 13,3 C 11,7 C 86 % 0 lf 1010,7 hPa 0,0 l/m 0 min 0 min 0 W/m 41,8 km/h (6 Bft) 91,49 %
19.11.2015 02:26 13,2 C 13,3 C 11,7 C 86 % 0 lf 1010,7 hPa 0,0 l/m 0 min 0 min 0 W/m 64,9 km/h (8 Bft) 91,49 %
19.11.2015 02:28 13,2 C 13,3 C 11,7 C 85 % 0 lf 1010,7 hPa 0,0 l/m 0 min 0 min 0 W/m 56,5 km/h (7 Bft) 93,62 %
19.11.2015 02:30 13,2 C 13,3 C 11,7 C 85 % 0 lf 1010,6 hPa 0,0 l/m 0 min 0 min 0 W/m 60,7 km/h (7 Bft) 89,13 %
19.11.2015 02:32 13,2 C 13,3 C 11,7 C 85 % 0 lf 1010,7 hPa 0,0 l/m 0 min 0 min 0 W/m 46,0 km/h (6 Bft) 89,36 %
19.11.2015 02:34 13,2 C 13,3 C 11,7 C 85 % 0 lf 1010,8 hPa 0,0 l/m 0 min 0 min 0 W/m 37,7 km/h (5 Bft) 93,62 %
19.11.2015 02:36 13,3 C 13,3 C 11,7 C 85 % 0 lf 1010,7 hPa 0,0 l/m 0 min 0 min 0 W/m 35,6 km/h (5 Bft) 89,36 %
19.11.2015 02:38 13,3 C 13,3 C 11,7 C 84 % 0 lf 1010,8 hPa 0,0 l/m 0 min 0 min 0 W/m 41,8 km/h (6 Bft) 91,49 %
19.11.2015 02:40 13,3 C 13,3 C 11,7 C 84 % 0 lf 1010,7 hPa 0,0 l/m 0 min 0 min 0 W/m 39,7 km/h (6 Bft) 89,36 %
19.11.2015 02:42 13,3 C 13,3 C 11,7 C 84 % 0 lf 1010,7 hPa 0,0 l/m 0 min 0 min 0 W/m 46,0 km/h (6 Bft) 91,30 %
19.11.2015 02:44 13,3 C 13,3 C 11,7 C 84 % 0 lf 1010,7 hPa 0,0 l/m 0 min 0 min 0 W/m 52,3 km/h (7 Bft) 91,49 %
19.11.2015 02:46 13,3 C 13,3 C 11,7 C 84 % 0 lf 1010,7 hPa 0,0 l/m 0 min 0 min 0 W/m 39,7 km/h (6 Bft) 91,49 %
19.11.2015 02:48 13,3 C 13,3 C 11,7 C 84 % 0 lf 1010,7 hPa 0,0 l/m 0 min 0 min 0 W/m 37,7 km/h (5 Bft) 91,49 %
19.11.2015 02:50 13,3 C 13,3 C 11,7 C 84 % 0 lf 1010,8 hPa 0,0 l/m 0 min 0 min 0 W/m 37,7 km/h (5 Bft) 91,49 %
19.11.2015 02:52 13,3 C 13,3 C 11,7 C 84 % 0 lf 1010,9 hPa 0,0 l/m 0 min 0 min 0 W/m 52,3 km/h (7 Bft) 85,11 %
19.11.2015 02:54 13,3 C 13,3 C 12,2 C 84 % 0 lf 1010,8 hPa 0,0 l/m 0 min 0 min 0 W/m 46,0 km/h (6 Bft) 86,96 %
19.11.2015 02:56 13,3 C 13,3 C 11,7 C 84 % 0 lf 1010,8 hPa 0,0 l/m 0 min 0 min 0 W/m 48,1 km/h (6 Bft) 93,62 %
19.11.2015 02:58 13,4 C 13,9 C 12,2 C 84 % 0 lf 1010,9 hPa 0,0 l/m 0 min 0 min 0 W/m 46,0 km/h (6 Bft) 91,49 %
19.11.2015 03:00 13,4 C 13,9 C 12,2 C 84 % 0 lf 1010,8 hPa 0,0 l/m 0 min 0 min 0 W/m 41,8 km/h (6 Bft) 95,74 %
19.11.2015 03:02 13,4 C 13,9 C 12,2 C 84 % 0 lf 1010,8 hPa 0,0 l/m 0 min 0 min 0 W/m 43,9 km/h (6 Bft) 95,74 %
19.11.2015 03:04 13,4 C 13,3 C 12,2 C 84 % 0 lf 1010,8 hPa 0,0 l/m 0 min 0 min 0 W/m 43,9 km/h (6 Bft) 93,62 %
19.11.2015 03:06 13,4 C 13,3 C 12,2 C 84 % 0 lf 1010,9 hPa 0,0 l/m 0 min 0 min 0 W/m 46,0 km/h (6 Bft) 97,83 %
19.11.2015 03:08 13,4 C 13,3 C 12,2 C 84 % 0 lf 1010,8 hPa 0,0 l/m 0 min 0 min 0 W/m 41,8 km/h (6 Bft) 89,36 %
19.11.2015 03:10 13,4 C 13,3 C 12,2 C 84 % 0 lf 1010,9 hPa 0,0 l/m 0 min 0 min 0 W/m 41,8 km/h (6 Bft) 95,74 %
19.11.2015 03:12 13,4 C 13,3 C 12,2 C 84 % 0 lf 1010,9 hPa 0,0 l/m 0 min 0 min 0 W/m 43,9 km/h (6 Bft) 95,74 %
19.11.2015 03:14 13,4 C 13,3 C 12,2 C 84 % 0 lf 1010,9 hPa 0,0 l/m 0 min 0 min 0 W/m 37,7 km/h (5 Bft) 93,62 %
19.11.2015 03:16 13,4 C 13,3 C 11,7 C 84 % 0 lf 1010,9 hPa 0,0 l/m 0 min 0 min 0 W/m 43,9 km/h (6 Bft) 91,49 %
19.11.2015 03:18 13,4 C 13,3 C 11,7 C 84 % 0 lf 1010,9 hPa 0,0 l/m 0 min 0 min 0 W/m 35,6 km/h (5 Bft) 95,65 %
19.11.2015 03:20 13,4 C 13,3 C 11,7 C 84 % 0 lf 1010,9 hPa 0,0 l/m 0 min 0 min 0 W/m 39,7 km/h (6 Bft) 100,00 %
19.11.2015 03:22 13,4 C 13,3 C 11,7 C 84 % 0 lf 1010,8 hPa 0,0 l/m 0 min 0 min 0 W/m 33,5 km/h (5 Bft) 100,00 %
19.11.2015 03:24 13,4 C 13,3 C 11,7 C 84 % 0 lf 1010,8 hPa 0,0 l/m 0 min 0 min 0 W/m 46,0 km/h (6 Bft) 95,74 %
19.11.2015 03:26 13,4 C 13,3 C 11,7 C 84 % 0 lf 1010,8 hPa 0,0 l/m 0 min 0 min 0 W/m 35,6 km/h (5 Bft) 100,00 %
19.11.2015 03:28 13,4 C 13,3 C 11,7 C 84 % 0 lf 1010,8 hPa 0,0 l/m 0 min 0 min 0 W/m 35,6 km/h (5 Bft) 97,83 %
19.11.2015 03:30 13,3 C 13,3 C 11,7 C 84 % 0 lf 1010,8 hPa 0,0 l/m 0 min 0 min 0 W/m 33,5 km/h (5 Bft) 100,00 %
19.11.2015 03:32 13,3 C 13,3 C 11,7 C 84 % 0 lf 1010,7 hPa 0,0 l/m 0 min 0 min 0 W/m 37,7 km/h (5 Bft) 95,74 %
19.11.2015 03:34 13,3 C 13,3 C 11,7 C 84 % 0 lf 1010,7 hPa 0,0 l/m 0 min 0 min 0 W/m 39,7 km/h (6 Bft) 97,87 %
19.11.2015 03:36 13,3 C 13,3 C 11,7 C 84 % 0 lf 1010,7 hPa 0,0 l/m 0 min 0 min 0 W/m 43,9 km/h (6 Bft) 97,87 %
19.11.2015 03:38 13,3 C 13,3 C 11,7 C 84 % 0 lf 1010,7 hPa 0,0 l/m 0 min 0 min 0 W/m 39,7 km/h (6 Bft) 97,87 %
19.11.2015 03:40 13,3 C 13,3 C 11,7 C 84 % 15 lf 1010,7 hPa 0,0 l/m 0 min 0 min 0 W/m 52,3 km/h (7 Bft) 100,00 %
19.11.2015 03:42 13,3 C 13,3 C 11,7 C 84 % 14 lf 1010,7 hPa 0,0 l/m 0 min 2 min 0 W/m 46,0 km/h (6 Bft) 97,87 %
19.11.2015 03:44 13,4 C 13,3 C 11,7 C 84 % 10 lf 1010,7 hPa 0,0 l/m 0 min 2 min 0 W/m 43,9 km/h (6 Bft) 97,87 %
19.11.2015 03:46 13,4 C 13,3 C 11,7 C 85 % 3 lf 1010,5 hPa 0,0 l/m 0 min 2 min 0 W/m 48,1 km/h (6 Bft) 100,00 %
19.11.2015 03:48 13,4 C 13,3 C 11,7 C 85 % 0 lf 1010,6 hPa 0,0 l/m 0 min 2 min 0 W/m 39,7 km/h (6 Bft) 100,00 %
19.11.2015 03:50 13,4 C 13,3 C 11,7 C 85 % 0 lf 1010,6 hPa 0,0 l/m 0 min 2 min 0 W/m 43,9 km/h (6 Bft) 100,00 %
19.11.2015 03:52 13,4 C 13,3 C 11,7 C 85 % 0 lf 1010,6 hPa 0,0 l/m 0 min 2 min 0 W/m 50,2 km/h (7 Bft) 97,83 %
19.11.2015 03:54 13,4 C 13,3 C 11,7 C 84 % 0 lf 1010,6 hPa 0,0 l/m 0 min 2 min 0 W/m 48,1 km/h (6 Bft) 100,00 %
19.11.2015 03:56 13,4 C 13,3 C 11,7 C 84 % 0 lf 1010,7 hPa 0,0 l/m 0 min 0 min 0 W/m 43,9 km/h (6 Bft) 100,00 %
19.11.2015 03:58 13,4 C 13,3 C 11,7 C 84 % 0 lf 1010,6 hPa 0,0 l/m 0 min 0 min 0 W/m 52,3 km/h (7 Bft) 97,87 %
19.11.2015 04:00 13,4 C 13,3 C 12,2 C 84 % 0 lf 1010,7 hPa 0,0 l/m 0 min 0 min 0 W/m 58,6 km/h (7 Bft) 97,87 %
19.11.2015 04:02 13,4 C 13,3 C 12,2 C 84 % 0 lf 1010,7 hPa 0,0 l/m 0 min 0 min 0 W/m 56,5 km/h (7 Bft) 100,00 %
19.11.2015 04:04 13,4 C 13,3 C 11,7 C 84 % 0 lf 1010,6 hPa 0,0 l/m 0 min 0 min 0 W/m 37,7 km/h (5 Bft) 97,83 %
19.11.2015 04:06 13,4 C 13,3 C 11,7 C 83 % 0 lf 1010,7 hPa 0,0 l/m 0 min 0 min 0 W/m 46,0 km/h (6 Bft) 93,62 %
19.11.2015 04:08 13,4 C 13,3 C 11,7 C 83 % 0 lf 1010,5 hPa 0,0 l/m 0 min 0 min 0 W/m 39,7 km/h (6 Bft) 95,74 %
19.11.2015 04:10 13,4 C 13,9 C 11,7 C 83 % 0 lf 1010,5 hPa 0,0 l/m 0 min 0 min 0 W/m 48,1 km/h (6 Bft) 100,00 %
19.11.2015 04:12 13,4 C 13,9 C 11,7 C 83 % 0 lf 1010,4 hPa 0,0 l/m 0 min 0 min 0 W/m 52,3 km/h (7 Bft) 100,00 %
19.11.2015 04:14 13,4 C 13,9 C 12,2 C 82 % 0 lf 1010,7 hPa 0,0 l/m 0 min 0 min 0 W/m 56,5 km/h (7 Bft) 95,74 %
19.11.2015 04:16 13,5 C 13,9 C 12,2 C 82 % 0 lf 1010,6 hPa 0,0 l/m 0 min 0 min 0 W/m 62,8 km/h (8 Bft) 93,48 %
19.11.2015 04:18 13,5 C 13,9 C 12,2 C 82 % 0 lf 1010,5 hPa 0,0 l/m 0 min 0 min 0 W/m 48,1 km/h (6 Bft) 100,00 %
19.11.2015 04:20 13,6 C 13,9 C 12,2 C 82 % 0 lf 1010,7 hPa 0,0 l/m 0 min 0 min 0 W/m 56,5 km/h (7 Bft) 97,87 %
19.11.2015 04:22 13,6 C 13,9 C 12,2 C 82 % 0 lf 1010,7 hPa 0,0 l/m 0 min 0 min 0 W/m 62,8 km/h (8 Bft) 100,00 %
19.11.2015 04:24 13,6 C 13,9 C 12,2 C 81 % 0 lf 1010,7 hPa 0,0 l/m 0 min 0 min 0 W/m 64,9 km/h (8 Bft) 97,87 %
19.11.2015 04:26 13,6 C 13,9 C 12,2 C 81 % 0 lf 1010,7 hPa 0,0 l/m 0 min 0 min 0 W/m 54,4 km/h (7 Bft) 100,00 %
19.11.2015 04:28 13,6 C 13,9 C 12,2 C 81 % 0 lf 1010,6 hPa 0,0 l/m 0 min 0 min 0 W/m 39,7 km/h (6 Bft) 97,83 %
19.11.2015 04:30 13,6 C 13,9 C 12,2 C 81 % 0 lf 1010,6 hPa 0,0 l/m 0 min 0 min 0 W/m 43,9 km/h (6 Bft) 95,74 %
19.11.2015 04:32 13,6 C 13,9 C 12,2 C 81 % 0 lf 1010,5 hPa 0,0 l/m 0 min 0 min 0 W/m 37,7 km/h (5 Bft) 95,74 %
19.11.2015 04:34 13,6 C 13,3 C 11,7 C 81 % 0 lf 1010,5 hPa 0,0 l/m 0 min 0 min 0 W/m 41,8 km/h (6 Bft) 97,87 %
19.11.2015 04:36 13,6 C 13,3 C 11,7 C 81 % 0 lf 1010,4 hPa 0,0 l/m 0 min 0 min 0 W/m 50,2 km/h (7 Bft) 95,74 %
19.11.2015 04:38 13,6 C 13,9 C 12,2 C 81 % 0 lf 1010,6 hPa 0,0 l/m 0 min 0 min 0 W/m 54,4 km/h (7 Bft) 97,87 %
19.11.2015 04:40 13,5 C 13,9 C 12,2 C 81 % 0 lf 1010,6 hPa 0,0 l/m 0 min 0 min 0 W/m 43,9 km/h (6 Bft) 95,65 %
19.11.2015 04:42 13,5 C 13,3 C 11,7 C 81 % 0 lf 1010,6 hPa 0,0 l/m 0 min 0 min 0 W/m 43,9 km/h (6 Bft) 97,87 %
19.11.2015 04:44 13,5 C 13,3 C 11,7 C 81 % 0 lf 1010,7 hPa 0,0 l/m 0 min 0 min 0 W/m 54,4 km/h (7 Bft) 93,62 %
19.11.2015 04:46 13,5 C 13,9 C 12,2 C 81 % 0 lf 1010,7 hPa 0,0 l/m 0 min 0 min 0 W/m 58,6 km/h (7 Bft) 97,87 %
19.11.2015 04:48 13,5 C 13,9 C 12,2 C 81 % 0 lf 1010,7 hPa 0,0 l/m 0 min 0 min 0 W/m 64,9 km/h (8 Bft) 95,74 %
19.11.2015 04:50 13,5 C 13,9 C 12,2 C 81 % 0 lf 1010,7 hPa 0,0 l/m 0 min 0 min 0 W/m 41,8 km/h (6 Bft) 95,65 %
19.11.2015 04:52 13,5 C 13,9 C 12,2 C 81 % 0 lf 1010,7 hPa 0,0 l/m 0 min 0 min 0 W/m 50,2 km/h (7 Bft) 95,74 %
19.11.2015 04:54 13,5 C 13,9 C 12,2 C 81 % 0 lf 1010,8 hPa 0,0 l/m 0 min 0 min 0 W/m 46,0 km/h (6 Bft) 95,74 %
19.11.2015 04:56 13,5 C 13,9 C 12,2 C 81 % 0 lf 1010,7 hPa 0,0 l/m 0 min 0 min 0 W/m 37,7 km/h (5 Bft) 97,87 %
19.11.2015 04:58 13,5 C 13,3 C 12,2 C 81 % 0 lf 1010,7 hPa 0,0 l/m 0 min 0 min 0 W/m 39,7 km/h (6 Bft) 93,62 %
19.11.2015 05:00 13,5 C 13,3 C 12,2 C 81 % 0 lf 1010,7 hPa 0,0 l/m 0 min 0 min 0 W/m 52,3 km/h (7 Bft) 93,62 %
19.11.2015 05:02 13,5 C 13,9 C 12,2 C 81 % 0 lf 1010,8 hPa 0,0 l/m 0 min 0 min 0 W/m 50,2 km/h (7 Bft) 95,65 %
19.11.2015 05:04 13,5 C 13,9 C 12,2 C 81 % 0 lf 1010,7 hPa 0,0 l/m 0 min 0 min 0 W/m 48,1 km/h (6 Bft) 93,62 %
19.11.2015 05:06 13,5 C 13,9 C 12,2 C 81 % 0 lf 1010,8 hPa 0,0 l/m 0 min 0 min 0 W/m 46,0 km/h (6 Bft) 93,62 %
19.11.2015 05:08 13,5 C 13,9 C 12,2 C 81 % 0 lf 1010,7 hPa 0,0 l/m 0 min 0 min 0 W/m 54,4 km/h (7 Bft) 95,74 %
19.11.2015 05:10 13,5 C 13,9 C 12,2 C 81 % 0 lf 1010,8 hPa 0,0 l/m 0 min 0 min 0 W/m 60,7 km/h (7 Bft) 89,36 %
19.11.2015 05:12 13,5 C 13,9 C 12,2 C 80 % 0 lf 1010,8 hPa 0,0 l/m 0 min 0 min 0 W/m 43,9 km/h (6 Bft) 93,62 %
19.11.2015 05:14 13,5 C 13,9 C 12,2 C 81 % 0 lf 1010,7 hPa 0,0 l/m 0 min 0 min 0 W/m 48,1 km/h (6 Bft) 95,65 %
19.11.2015 05:16 13,6 C 13,9 C 12,2 C 80 % 0 lf 1010,9 hPa 0,0 l/m 0 min 0 min 0 W/m 50,2 km/h (7 Bft) 91,49 %
19.11.2015 05:18 13,6 C 13,9 C 12,2 C 80 % 0 lf 1010,9 hPa 0,0 l/m 0 min 0 min 0 W/m 50,2 km/h (7 Bft) 95,74 %
19.11.2015 05:20 13,6 C 13,9 C 12,2 C 80 % 0 lf 1010,9 hPa 0,0 l/m 0 min 0 min 0 W/m 50,2 km/h (7 Bft) 93,62 %
19.11.2015 05:22 13,6 C 13,9 C 12,2 C 80 % 0 lf 1010,9 hPa 0,0 l/m 0 min 0 min 0 W/m 50,2 km/h (7 Bft) 93,62 %
19.11.2015 05:24 13,6 C 13,9 C 12,2 C 80 % 0 lf 1011,0 hPa 0,0 l/m 0 min 0 min 0 W/m 46,0 km/h (6 Bft) 93,62 %
19.11.2015 05:26 13,6 C 13,9 C 12,2 C 80 % 0 lf 1010,8 hPa 0,0 l/m 0 min 0 min 0 W/m 46,0 km/h (6 Bft) 91,84 %
19.11.2015 05:28 13,6 C 13,9 C 12,2 C 80 % 0 lf 1010,8 hPa 0,0 l/m 0 min 0 min 0 W/m 54,4 km/h (7 Bft) 93,62 %
19.11.2015 05:30 13,6 C 13,9 C 12,2 C 80 % 0 lf 1010,8 hPa 0,0 l/m 0 min 0 min 0 W/m 48,1 km/h (6 Bft) 95,74 %
19.11.2015 05:32 13,5 C 13,3 C 11,7 C 80 % 0 lf 1010,9 hPa 0,0 l/m 0 min 0 min 0 W/m 39,7 km/h (6 Bft) 93,62 %
19.11.2015 05:34 13,5 C 13,3 C 11,7 C 80 % 0 lf 1010,9 hPa 0,0 l/m 0 min 0 min 0 W/m 39,7 km/h (6 Bft) 95,74 %
19.11.2015 05:36 13,5 C 13,3 C 11,7 C 80 % 0 lf 1010,9 hPa 0,0 l/m 0 min 0 min 0 W/m 50,2 km/h (7 Bft) 93,48 %
19.11.2015 05:38 13,4 C 13,3 C 11,7 C 80 % 0 lf 1010,9 hPa 0,0 l/m 0 min 0 min 0 W/m 43,9 km/h (6 Bft) 93,62 %
19.11.2015 05:40 13,4 C 13,3 C 11,7 C 79 % 0 lf 1011,0 hPa 0,0 l/m 0 min 0 min 0 W/m 43,9 km/h (6 Bft) 95,74 %
19.11.2015 05:42 13,4 C 13,3 C 11,7 C 79 % 0 lf 1010,9 hPa 0,0 l/m 0 min 0 min 0 W/m 50,2 km/h (7 Bft) 95,74 %
19.11.2015 05:44 13,4 C 13,3 C 11,7 C 79 % 0 lf 1011,0 hPa 0,0 l/m 0 min 0 min 0 W/m 48,1 km/h (6 Bft) 91,49 %
19.11.2015 05:46 13,4 C 13,3 C 11,7 C 79 % 0 lf 1011,1 hPa 0,0 l/m 0 min 0 min 0 W/m 46,0 km/h (6 Bft) 91,49 %
19.11.2015 05:48 13,4 C 13,3 C 11,7 C 79 % 0 lf 1011,3 hPa 0,0 l/m 0 min 0 min 0 W/m 50,2 km/h (7 Bft) 93,48 %
19.11.2015 05:50 13,4 C 13,3 C 11,7 C 79 % 0 lf 1011,1 hPa 0,0 l/m 0 min 0 min 0 W/m 54,4 km/h (7 Bft) 95,74 %
19.11.2015 05:52 13,4 C 13,3 C 11,7 C 79 % 0 lf 1011,2 hPa 0,0 l/m 0 min 0 min 0 W/m 56,5 km/h (7 Bft) 95,74 %
19.11.2015 05:54 13,4 C 13,3 C 11,7 C 79 % 0 lf 1011,1 hPa 0,0 l/m 0 min 0 min 0 W/m 43,9 km/h (6 Bft) 100,00 %
19.11.2015 05:56 13,4 C 13,3 C 11,7 C 79 % 0 lf 1011,0 hPa 0,0 l/m 0 min 0 min 0 W/m 43,9 km/h (6 Bft) 100,00 %
19.11.2015 05:58 13,4 C 13,3 C 11,7 C 79 % 0 lf 1011,1 hPa 0,0 l/m 0 min 0 min 0 W/m 46,0 km/h (6 Bft) 93,62 %
19.11.2015 06:00 13,4 C 13,3 C 11,7 C 78 % 0 lf 1011,1 hPa 0,0 l/m 0 min 0 min 0 W/m 48,1 km/h (6 Bft) 97,83 %
19.11.2015 06:02 13,4 C 13,3 C 11,7 C 78 % 0 lf 1011,1 hPa 0,0 l/m 0 min 0 min 0 W/m 41,8 km/h (6 Bft) 95,74 %
19.11.2015 06:04 13,4 C 13,3 C 11,7 C 78 % 0 lf 1011,1 hPa 0,0 l/m 0 min 0 min 0 W/m 41,8 km/h (6 Bft) 97,87 %
19.11.2015 06:06 13,4 C 13,3 C 11,7 C 78 % 0 lf 1011,1 hPa 0,0 l/m 0 min 0 min 0 W/m 41,8 km/h (6 Bft) 95,74 %
19.11.2015 06:08 13,3 C 13,3 C 11,7 C 78 % 0 lf 1011,1 hPa 0,0 l/m 0 min 0 min 0 W/m 33,5 km/h (5 Bft) 97,87 %
19.11.2015 06:10 13,3 C 13,3 C 11,7 C 78 % 0 lf 1011,1 hPa 0,0 l/m 0 min 0 min 0 W/m 39,7 km/h (6 Bft) 95,74 %
19.11.2015 06:12 13,3 C 13,3 C 11,7 C 78 % 0 lf 1011,1 hPa 0,0 l/m 0 min 0 min 0 W/m 41,8 km/h (6 Bft) 93,48 %
19.11.2015 06:14 13,3 C 13,3 C 11,7 C 78 % 0 lf 1011,1 hPa 0,0 l/m 0 min 0 min 0 W/m 43,9 km/h (6 Bft) 97,87 %
19.11.2015 06:16 13,3 C 13,3 C 11,7 C 78 % 0 lf 1011,1 hPa 0,0 l/m 0 min 0 min 0 W/m 43,9 km/h (6 Bft) 91,49 %
19.11.2015 06:18 13,3 C 13,3 C 11,7 C 78 % 0 lf 1011,2 hPa 0,0 l/m 0 min 0 min 0 W/m 35,6 km/h (5 Bft) 95,74 %
19.11.2015 06:20 13,3 C 13,3 C 11,7 C 78 % 0 lf 1011,2 hPa 0,0 l/m 0 min 0 min 0 W/m 48,1 km/h (6 Bft) 95,74 %
19.11.2015 06:22 13,3 C 13,3 C 11,7 C 78 % 0 lf 1011,2 hPa 0,0 l/m 0 min 0 min 0 W/m 35,6 km/h (5 Bft) 97,87 %
19.11.2015 06:24 13,3 C 13,3 C 11,7 C 78 % 0 lf 1011,2 hPa 0,0 l/m 0 min 0 min 0 W/m 39,7 km/h (6 Bft) 95,65 %
19.11.2015 06:26 13,3 C 13,3 C 11,7 C 78 % 0 lf 1011,2 hPa 0,0 l/m 0 min 0 min 0 W/m 48,1 km/h (6 Bft) 89,36 %
19.11.2015 06:28 13,3 C 13,3 C 11,7 C 78 % 0 lf 1011,2 hPa 0,0 l/m 0 min 0 min 0 W/m 43,9 km/h (6 Bft) 97,87 %
19.11.2015 06:30 13,3 C 13,3 C 11,7 C 78 % 0 lf 1011,1 hPa 0,0 l/m 0 min 0 min 0 W/m 37,7 km/h (5 Bft) 95,74 %
19.11.2015 06:32 13,3 C 13,3 C 11,7 C 78 % 0 lf 1011,2 hPa 0,0 l/m 0 min 0 min 0 W/m 48,1 km/h (6 Bft) 91,49 %
19.11.2015 06:34 13,3 C 13,3 C 11,7 C 78 % 0 lf 1011,3 hPa 0,0 l/m 0 min 0 min 0 W/m 41,8 km/h (6 Bft) 93,62 %
19.11.2015 06:36 13,3 C 13,3 C 11,7 C 78 % 0 lf 1011,3 hPa 0,0 l/m 0 min 0 min 0 W/m 33,5 km/h (5 Bft) 97,83 %
19.11.2015 06:38 13,3 C 13,3 C 11,7 C 78 % 0 lf 1011,5 hPa 0,0 l/m 0 min 0 min 0 W/m 43,9 km/h (6 Bft) 95,74 %
19.11.2015 06:40 13,3 C 13,3 C 11,7 C 78 % 0 lf 1011,3 hPa 0,0 l/m 0 min 0 min 0 W/m 33,5 km/h (5 Bft) 95,74 %
19.11.2015 06:42 13,3 C 13,3 C 11,7 C 78 % 0 lf 1011,5 hPa 0,0 l/m 0 min 0 min 0 W/m 37,7 km/h (5 Bft) 95,74 %
19.11.2015 06:44 13,3 C 13,3 C 11,7 C 78 % 0 lf 1011,5 hPa 0,0 l/m 0 min 0 min 0 W/m 35,6 km/h (5 Bft) 91,49 %
19.11.2015 06:46 13,3 C 13,3 C 11,7 C 79 % 0 lf 1011,6 hPa 0,0 l/m 0 min 0 min 0 W/m 46,0 km/h (6 Bft) 93,48 %
19.11.2015 06:48 13,3 C 13,3 C 11,7 C 79 % 0 lf 1011,5 hPa 0,0 l/m 0 min 0 min 0 W/m 39,7 km/h (6 Bft) 93,62 %
19.11.2015 06:50 13,3 C 13,3 C 11,7 C 79 % 0 lf 1011,6 hPa 0,0 l/m 0 min 0 min 0 W/m 48,1 km/h (6 Bft) 95,74 %
19.11.2015 06:52 13,3 C 13,3 C 11,7 C 79 % 0 lf 1011,6 hPa 0,0 l/m 0 min 0 min 0 W/m 31,4 km/h (5 Bft) 95,74 %
19.11.2015 06:54 13,3 C 13,3 C 11,7 C 79 % 0 lf 1011,5 hPa 0,0 l/m 0 min 0 min 0 W/m 58,6 km/h (7 Bft) 95,74 %
19.11.2015 06:56 13,2 C 13,3 C 11,7 C 79 % 0 lf 1011,6 hPa 0,0 l/m 0 min 0 min 0 W/m 29,3 km/h (5 Bft) 95,74 %
19.11.2015 06:58 13,2 C 13,3 C 11,7 C 79 % 0 lf 1011,6 hPa 0,0 l/m 0 min 0 min 0 W/m 41,8 km/h (6 Bft) 95,65 %
19.11.2015 07:00 13,2 C 13,3 C 11,7 C 78 % 0 lf 1011,6 hPa 0,0 l/m 0 min 0 min 0 W/m 31,4 km/h (5 Bft) 93,62 %
19.11.2015 07:02 13,2 C 13,3 C 11,7 C 78 % 0 lf 1011,6 hPa 0,0 l/m 0 min 0 min 0 W/m 48,1 km/h (6 Bft) 95,74 %
19.11.2015 07:04 13,2 C 13,3 C 11,7 C 78 % 0 lf 1011,5 hPa 0,0 l/m 0 min 0 min 0 W/m 35,6 km/h (5 Bft) 97,87 %
19.11.2015 07:06 13,2 C 13,3 C 11,7 C 78 % 0 lf 1011,6 hPa 0,0 l/m 0 min 0 min 0 W/m 37,7 km/h (5 Bft) 100,00 %
19.11.2015 07:08 13,2 C 13,3 C 11,7 C 78 % 0 lf 1011,6 hPa 0,0 l/m 0 min 0 min 0 W/m 41,8 km/h (6 Bft) 95,74 %
19.11.2015 07:10 13,2 C 13,3 C 11,7 C 78 % 0 lf 1011,6 hPa 0,0 l/m 0 min 0 min 0 W/m 39,7 km/h (6 Bft) 100,00 %
19.11.2015 07:12 13,2 C 13,3 C 11,7 C 78 % 0 lf 1011,6 hPa 0,0 l/m 0 min 0 min 0 W/m 39,7 km/h (6 Bft) 97,87 %
19.11.2015 07:14 13,2 C 13,3 C 11,7 C 78 % 0 lf 1011,7 hPa 0,0 l/m 0 min 0 min 0 W/m 31,4 km/h (5 Bft) 100,00 %
19.11.2015 07:16 13,2 C 13,3 C 11,7 C 78 % 0 lf 1011,7 hPa 0,0 l/m 0 min 0 min 0 W/m 27,2 km/h (4 Bft) 97,87 %
19.11.2015 07:18 13,2 C 13,3 C 11,7 C 78 % 0 lf 1011,8 hPa 0,0 l/m 0 min 0 min 0 W/m 54,4 km/h (7 Bft) 100,00 %
19.11.2015 07:20 13,1 C 13,3 C 11,7 C 78 % 0 lf 1011,8 hPa 0,0 l/m 0 min 0 min 0 W/m 43,9 km/h (6 Bft) 95,74 %
19.11.2015 07:22 13,1 C 13,3 C 11,7 C 78 % 0 lf 1011,7 hPa 0,0 l/m 0 min 0 min 0 W/m 27,2 km/h (4 Bft) 97,83 %
19.11.2015 07:24 13,1 C 13,3 C 11,7 C 78 % 0 lf 1011,6 hPa 0,0 l/m 0 min 0 min 0 W/m 31,4 km/h (5 Bft) 100,00 %
19.11.2015 07:26 13,1 C 13,3 C 11,7 C 78 % 0 lf 1011,7 hPa 0,0 l/m 0 min 0 min 0 W/m 46,0 km/h (6 Bft) 100,00 %
19.11.2015 07:28 13,1 C 13,3 C 11,7 C 77 % 0 lf 1011,6 hPa 0,0 l/m 0 min 0 min 0 W/m 33,5 km/h (5 Bft) 100,00 %
19.11.2015 07:30 13,1 C 13,3 C 11,7 C 78 % 0 lf 1011,8 hPa 0,0 l/m 0 min 0 min 0 W/m 33,5 km/h (5 Bft) 97,87 %
19.11.2015 07:32 13,1 C 13,3 C 11,7 C 77 % 0 lf 1011,7 hPa 0,0 l/m 0 min 0 min 0 W/m 37,7 km/h (5 Bft) 100,00 %
19.11.2015 07:34 13,1 C 13,3 C 11,7 C 77 % 0 lf 1011,8 hPa 0,0 l/m 0 min 0 min 0 W/m 41,8 km/h (6 Bft) 97,83 %
19.11.2015 07:36 13,1 C 13,3 C 11,7 C 77 % 0 lf 1011,8 hPa 0,0 l/m 0 min 0 min 0 W/m 29,3 km/h (5 Bft) 95,74 %
19.11.2015 07:38 13,1 C 13,3 C 11,7 C 77 % 0 lf 1011,9 hPa 0,0 l/m 0 min 0 min 0 W/m 41,8 km/h (6 Bft) 93,62 %
19.11.2015 07:40 13,1 C 13,3 C 11,7 C 77 % 0 lf 1011,8 hPa 0,0 l/m 0 min 0 min 0 W/m 39,7 km/h (6 Bft) 97,87 %
19.11.2015 07:42 13,1 C 13,3 C 11,7 C 77 % 0 lf 1011,9 hPa 0,0 l/m 0 min 0 min 0 W/m 35,6 km/h (5 Bft) 97,87 %
19.11.2015 07:44 13,1 C 13,3 C 11,7 C 77 % 2 lf 1011,9 hPa 0,0 l/m 0 min 2 min 0 W/m 33,5 km/h (5 Bft) 100,00 %
19.11.2015 07:46 13,1 C 12,8 C 11,7 C 77 % 1 lf 1011,9 hPa 0,0 l/m 0 min 2 min 0 W/m 33,5 km/h (5 Bft) 97,83 %
19.11.2015 07:48 13,1 C 12,8 C 11,1 C 77 % 12 lf 1012,0 hPa 0,0 l/m 0 min 2 min 0 W/m 29,3 km/h (5 Bft) 97,87 %
19.11.2015 07:50 13,0 C 12,8 C 11,1 C 78 % 2 lf 1012,0 hPa 0,0 l/m 0 min 0 min 0 W/m 27,2 km/h (4 Bft) 95,74 %
19.11.2015 07:52 13,0 C 12,8 C 11,7 C 78 % 0 lf 1012,0 hPa 0,0 l/m 0 min 0 min 0 W/m 35,6 km/h (5 Bft) 97,87 %
19.11.2015 07:54 13,0 C 12,8 C 11,7 C 78 % 0 lf 1012,0 hPa 0,0 l/m 0 min 0 min 0 W/m 33,5 km/h (5 Bft) 93,62 %
19.11.2015 07:56 13,0 C 12,8 C 11,1 C 78 % 0 lf 1012,0 hPa 0,0 l/m 0 min 0 min 0 W/m 31,4 km/h (5 Bft) 93,62 %
19.11.2015 07:58 12,9 C 12,8 C 11,7 C 78 % 0 lf 1012,0 hPa 0,0 l/m 0 min 0 min 0 W/m 31,4 km/h (5 Bft) 95,65 %
19.11.2015 08:00 12,9 C 12,8 C 11,7 C 78 % 0 lf 1012,0 hPa 0,0 l/m 0 min 2 min 0 W/m 25,1 km/h (4 Bft) 89,36 %
19.11.2015 08:02 12,9 C 12,8 C 11,7 C 78 % 0 lf 1012,0 hPa 0,0 l/m 0 min 0 min 0 W/m 33,5 km/h (5 Bft) 93,62 %
19.11.2015 08:04 12,9 C 12,8 C 11,1 C 78 % 0 lf 1012,1 hPa 0,0 l/m 0 min 0 min 0 W/m 35,6 km/h (5 Bft) 93,62 %
19.11.2015 08:06 12,9 C 12,8 C 11,1 C 78 % 0 lf 1012,3 hPa 0,0 l/m 0 min 0 min 3 W/m 35,6 km/h (5 Bft) 93,62 %
19.11.2015 08:08 12,9 C 12,8 C 11,1 C 78 % 1 lf 1012,4 hPa 0,0 l/m 0 min 0 min 5 W/m 39,7 km/h (6 Bft) 93,48 %
19.11.2015 08:10 12,8 C 12,8 C 11,1 C 78 % 0 lf 1012,3 hPa 0,0 l/m 0 min 0 min 3 W/m 31,4 km/h (5 Bft) 93,62 %
19.11.2015 08:12 12,8 C 12,8 C 11,1 C 79 % 0 lf 1012,4 hPa 0,0 l/m 0 min 0 min 5 W/m 33,5 km/h (5 Bft) 93,62 %
19.11.2015 08:14 12,8 C 12,8 C 11,1 C 79 % 0 lf 1012,3 hPa 0,0 l/m 0 min 0 min 7 W/m 27,2 km/h (4 Bft) 93,62 %
19.11.2015 08:16 12,8 C 12,8 C 11,1 C 79 % 0 lf 1012,2 hPa 0,0 l/m 0 min 0 min 11 W/m 35,6 km/h (5 Bft) 95,74 %
19.11.2015 08:18 12,8 C 12,8 C 11,1 C 79 % 0 lf 1012,4 hPa 0,0 l/m 0 min 0 min 12 W/m 31,4 km/h (5 Bft) 93,62 %
19.11.2015 08:20 12,7 C 12,8 C 11,1 C 79 % 0 lf 1012,4 hPa 0,0 l/m 0 min 0 min 15 W/m 27,2 km/h (4 Bft) 95,65 %
19.11.2015 08:22 12,7 C 12,8 C 11,1 C 79 % 0 lf 1012,5 hPa 0,0 l/m 0 min 0 min 16 W/m 20,9 km/h (4 Bft) 93,62 %
19.11.2015 08:24 12,7 C 12,8 C 10,6 C 79 % 0 lf 1012,5 hPa 0,0 l/m 0 min 0 min 16 W/m 33,5 km/h (5 Bft) 93,62 %
19.11.2015 08:26 12,6 C 12,8 C 11,1 C 80 % 0 lf 1012,5 hPa 0,0 l/m 0 min 0 min 16 W/m 41,8 km/h (6 Bft) 95,74 %
19.11.2015 08:28 12,6 C 12,8 C 11,1 C 80 % 0 lf 1012,5 hPa 0,0 l/m 0 min 0 min 16 W/m 39,7 km/h (6 Bft) 93,62 %
19.11.2015 08:30 12,6 C 12,8 C 11,1 C 80 % 0 lf 1012,5 hPa 0,0 l/m 0 min 0 min 16 W/m 37,7 km/h (5 Bft) 89,36 %
19.11.2015 08:32 12,6 C 12,8 C 11,1 C 80 % 0 lf 1012,5 hPa 0,0 l/m 0 min 0 min 16 W/m 31,4 km/h (5 Bft) 91,30 %
19.11.2015 08:34 12,6 C 12,2 C 10,6 C 80 % 0 lf 1012,6 hPa 0,0 l/m 0 min 0 min 16 W/m 27,2 km/h (4 Bft) 91,49 %
19.11.2015 08:36 12,5 C 12,2 C 10,6 C 80 % 0 lf 1012,5 hPa 0,0 l/m 0 min 0 min 16 W/m 25,1 km/h (4 Bft) 91,49 %
19.11.2015 08:38 12,5 C 12,2 C 10,6 C 81 % 0 lf 1012,6 hPa 0,0 l/m 0 min 0 min 17 W/m 31,4 km/h (5 Bft) 85,11 %
19.11.2015 08:40 12,4 C 12,2 C 10,6 C 81 % 0 lf 1012,7 hPa 0,0 l/m 0 min 0 min 18 W/m 23,0 km/h (4 Bft) 93,62 %
19.11.2015 08:42 12,4 C 12,2 C 10,6 C 81 % 0 lf 1012,7 hPa 0,0 l/m 0 min 0 min 18 W/m 23,0 km/h (4 Bft) 95,74 %
19.11.2015 08:44 12,4 C 12,2 C 10,6 C 82 % 0 lf 1012,7 hPa 0,0 l/m 0 min 0 min 19 W/m 20,9 km/h (4 Bft) 93,48 %
19.11.2015 08:46 12,3 C 12,2 C 10,6 C 82 % 0 lf 1012,8 hPa 0,0 l/m 0 min 0 min 20 W/m 31,4 km/h (5 Bft) 93,62 %
19.11.2015 08:48 12,3 C 12,2 C 10,6 C 82 % 0 lf 1012,8 hPa 0,0 l/m 0 min 0 min 24 W/m 27,2 km/h (4 Bft) 91,49 %
19.11.2015 08:50 12,3 C 12,2 C 10,6 C 82 % 0 lf 1012,8 hPa 0,0 l/m 0 min 0 min 25 W/m 23,0 km/h (4 Bft) 95,74 %
19.11.2015 08:52 12,2 C 12,2 C 10,6 C 82 % 0 lf 1012,8 hPa 0,0 l/m 0 min 0 min 23 W/m 29,3 km/h (5 Bft) 95,74 %
19.11.2015 08:54 12,2 C 12,2 C 10,6 C 82 % 0 lf 1012,9 hPa 0,0 l/m 0 min 0 min 23 W/m 27,2 km/h (4 Bft) 97,87 %
19.11.2015 08:56 12,2 C 12,2 C 10,6 C 83 % 0 lf 1012,9 hPa 0,0 l/m 0 min 0 min 24 W/m 31,4 km/h (5 Bft) 95,65 %
19.11.2015 08:58 12,2 C 12,2 C 10,6 C 83 % 0 lf 1012,8 hPa 0,0 l/m 0 min 0 min 27 W/m 23,0 km/h (4 Bft) 97,87 %
19.11.2015 09:00 12,1 C 12,2 C 10,6 C 83 % 0 lf 1012,9 hPa 0,0 l/m 0 min 0 min 30 W/m 31,4 km/h (5 Bft) 97,87 %
19.11.2015 09:02 12,1 C 12,2 C 10,6 C 84 % 0 lf 1012,9 hPa 0,0 l/m 0 min 0 min 36 W/m 27,2 km/h (4 Bft) 97,87 %
19.11.2015 09:04 12,1 C 12,2 C 10,6 C 84 % 0 lf 1012,9 hPa 0,0 l/m 0 min 0 min 52 W/m 33,5 km/h (5 Bft) 97,87 %
19.11.2015 09:06 12,1 C 12,2 C 10,6 C 84 % 0 lf 1013,0 hPa 0,0 l/m 0 min 0 min 52 W/m 35,6 km/h (5 Bft) 100,00 %
19.11.2015 09:08 12,1 C 12,2 C 10,6 C 84 % 0 lf 1013,0 hPa 0,0 l/m 0 min 0 min 64 W/m 31,4 km/h (5 Bft) 100,00 %
19.11.2015 09:10 12,1 C 12,2 C 10,6 C 85 % 0 lf 1013,0 hPa 0,0 l/m 2 min 0 min 83 W/m 27,2 km/h (4 Bft) 100,00 %
19.11.2015 09:12 12,1 C 12,8 C 11,1 C 85 % 0 lf 1013,1 hPa 0,0 l/m 2 min 0 min 94 W/m 31,4 km/h (5 Bft) 97,87 %
19.11.2015 09:14 12,1 C 12,8 C 11,1 C 85 % 0 lf 1013,1 hPa 0,0 l/m 2 min 0 min 99 W/m 29,3 km/h (5 Bft) 100,00 %
19.11.2015 09:16 12,1 C 12,8 C 11,1 C 86 % 0 lf 1013,0 hPa 0,0 l/m 2 min 0 min 111 W/m 29,3 km/h (5 Bft) 100,00 %
19.11.2015 09:18 12,1 C 12,8 C 11,1 C 86 % 0 lf 1013,1 hPa 0,0 l/m 2 min 0 min 115 W/m 29,3 km/h (5 Bft) 100,00 %
19.11.2015 09:20 12,1 C 12,8 C 11,1 C 86 % 0 lf 1013,1 hPa 0,0 l/m 2 min 0 min 89 W/m 18,8 km/h (3 Bft) 97,83 %
19.11.2015 09:22 12,1 C 12,8 C 11,1 C 86 % 0 lf 1013,1 hPa 0,0 l/m 2 min 0 min 93 W/m 35,6 km/h (5 Bft) 100,00 %
19.11.2015 09:24 12,2 C 12,8 C 11,1 C 86 % 0 lf 1013,0 hPa 0,0 l/m 0 min 0 min 63 W/m 29,3 km/h (5 Bft) 97,87 %
19.11.2015 09:26 12,2 C 12,8 C 11,1 C 86 % 0 lf 1013,0 hPa 0,0 l/m 0 min 0 min 60 W/m 23,0 km/h (4 Bft) 93,62 %
19.11.2015 09:28 12,2 C 12,8 C 11,1 C 86 % 0 lf 1013,1 hPa 0,0 l/m 0 min 0 min 66 W/m 27,2 km/h (4 Bft) 100,00 %
19.11.2015 09:30 12,2 C 12,8 C 11,1 C 86 % 0 lf 1013,0 hPa 0,0 l/m 0 min 0 min 66 W/m 29,3 km/h (5 Bft) 93,48 %
19.11.2015 09:32 12,2 C 12,8 C 11,1 C 86 % 0 lf 1013,0 hPa 0,0 l/m 0 min 0 min 68 W/m 29,3 km/h (5 Bft) 97,87 %
19.11.2015 09:34 12,2 C 12,8 C 11,1 C 86 % 0 lf 1013,0 hPa 0,0 l/m 0 min 0 min 64 W/m 31,4 km/h (5 Bft) 97,87 %
19.11.2015 09:36 12,2 C 12,8 C 11,1 C 86 % 0 lf 1012,9 hPa 0,0 l/m 0 min 0 min 69 W/m 39,7 km/h (6 Bft) 100,00 %
19.11.2015 09:38 12,2 C 12,8 C 11,1 C 86 % 0 lf 1012,9 hPa 0,0 l/m 0 min 0 min 88 W/m 29,3 km/h (5 Bft) 100,00 %
19.11.2015 09:40 12,2 C 12,8 C 11,1 C 86 % 0 lf 1012,9 hPa 0,0 l/m 0 min 0 min 81 W/m 33,5 km/h (5 Bft) 100,00 %
19.11.2015 09:42 12,2 C 12,8 C 11,1 C 86 % 0 lf 1012,9 hPa 0,0 l/m 0 min 0 min 82 W/m 25,1 km/h (4 Bft) 100,00 %
19.11.2015 09:44 12,3 C 12,8 C 11,1 C 86 % 0 lf 1012,9 hPa 0,0 l/m 0 min 0 min 84 W/m 29,3 km/h (5 Bft) 100,00 %
19.11.2015 09:46 12,3 C 12,8 C 11,1 C 86 % 0 lf 1013,0 hPa 0,0 l/m 0 min 0 min 90 W/m 27,2 km/h (4 Bft) 97,87 %
19.11.2015 09:48 12,3 C 12,8 C 11,1 C 86 % 0 lf 1013,0 hPa 0,0 l/m 0 min 0 min 94 W/m 27,2 km/h (4 Bft) 93,62 %
19.11.2015 09:50 12,3 C 13,3 C 11,1 C 86 % 0 lf 1012,9 hPa 0,0 l/m 0 min 0 min 90 W/m 25,1 km/h (4 Bft) 97,87 %
19.11.2015 09:52 12,3 C 13,3 C 11,1 C 86 % 0 lf 1013,0 hPa 0,0 l/m 0 min 0 min 90 W/m 27,2 km/h (4 Bft) 97,87 %
19.11.2015 09:54 12,3 C 13,3 C 11,7 C 86 % 0 lf 1013,1 hPa 0,0 l/m 0 min 0 min 99 W/m 29,3 km/h (5 Bft) 97,83 %
19.11.2015 09:56 12,3 C 13,3 C 11,7 C 86 % 0 lf 1013,1 hPa 0,0 l/m 0 min 0 min 107 W/m 29,3 km/h (5 Bft) 97,87 %
19.11.2015 09:58 12,4 C 13,9 C 11,7 C 86 % 0 lf 1013,0 hPa 0,0 l/m 2 min 0 min 126 W/m 27,2 km/h (4 Bft) 95,74 %
19.11.2015 10:00 12,4 C 13,9 C 11,7 C 86 % 0 lf 1013,2 hPa 0,0 l/m 2 min 0 min 123 W/m 29,3 km/h (5 Bft) 93,62 %
19.11.2015 10:02 12,4 C 13,9 C 11,7 C 85 % 0 lf 1013,0 hPa 0,0 l/m 0 min 0 min 105 W/m 27,2 km/h (4 Bft) 97,87 %
19.11.2015 10:04 12,4 C 13,9 C 11,7 C 85 % 0 lf 1012,9 hPa 0,0 l/m 0 min 0 min 103 W/m 41,8 km/h (6 Bft) 97,87 %
19.11.2015 10:06 12,5 C 13,9 C 11,7 C 84 % 0 lf 1013,0 hPa 0,0 l/m 0 min 0 min 114 W/m 39,7 km/h (6 Bft) 95,65 %
19.11.2015 10:08 12,5 C 13,9 C 11,7 C 84 % 0 lf 1013,0 hPa 0,0 l/m 2 min 0 min 122 W/m 39,7 km/h (6 Bft) 95,74 %
19.11.2015 10:10 12,6 C 14,4 C 11,7 C 84 % 0 lf 1013,1 hPa 0,0 l/m 2 min 0 min 200 W/m 41,8 km/h (6 Bft) 91,49 %
19.11.2015 10:12 12,7 C 14,4 C 11,7 C 84 % 0 lf 1013,0 hPa 0,0 l/m 2 min 0 min 184 W/m 48,1 km/h (6 Bft) 97,87 %
19.11.2015 10:14 12,7 C 14,4 C 11,7 C 84 % 0 lf 1013,0 hPa 0,0 l/m 2 min 0 min 134 W/m 43,9 km/h (6 Bft) 91,49 %
19.11.2015 10:16 12,7 C 13,9 C 11,7 C 84 % 0 lf 1013,0 hPa 0,0 l/m 0 min 0 min 113 W/m 29,3 km/h (5 Bft) 95,74 %
19.11.2015 10:18 12,8 C 13,9 C 11,7 C 84 % 0 lf 1013,0 hPa 0,0 l/m 0 min 0 min 105 W/m 35,6 km/h (5 Bft) 97,83 %
19.11.2015 10:20 12,8 C 13,9 C 11,7 C 84 % 0 lf 1013,0 hPa 0,0 l/m 0 min 0 min 99 W/m 31,4 km/h (5 Bft) 97,87 %
19.11.2015 10:22 12,8 C 13,3 C 11,7 C 84 % 0 lf 1013,0 hPa 0,0 l/m 0 min 0 min 105 W/m 29,3 km/h (5 Bft) 91,49 %
19.11.2015 10:24 12,8 C 13,9 C 11,7 C 84 % 0 lf 1013,1 hPa 0,0 l/m 0 min 0 min 122 W/m 39,7 km/h (6 Bft) 93,62 %
19.11.2015 10:26 12,8 C 13,9 C 11,7 C 84 % 0 lf 1013,1 hPa 0,0 l/m 0 min 0 min 121 W/m 35,6 km/h (5 Bft) 97,87 %
19.11.2015 10:28 12,8 C 13,3 C 11,7 C 84 % 0 lf 1012,9 hPa 0,0 l/m 0 min 0 min 118 W/m 31,4 km/h (5 Bft) 91,49 %
19.11.2015 10:30 12,8 C 13,3 C 11,7 C 84 % 0 lf 1013,0 hPa 0,0 l/m 0 min 0 min 110 W/m 39,7 km/h (6 Bft) 97,83 %
19.11.2015 10:32 12,8 C 13,3 C 11,7 C 84 % 0 lf 1013,1 hPa 0,0 l/m 0 min 0 min 105 W/m 37,7 km/h (5 Bft) 93,62 %
19.11.2015 10:34 12,8 C 13,3 C 11,7 C 84 % 0 lf 1013,1 hPa 0,0 l/m 0 min 0 min 103 W/m 43,9 km/h (6 Bft) 95,74 %
19.11.2015 10:36 12,8 C 13,3 C 11,7 C 84 % 0 lf 1013,2 hPa 0,0 l/m 0 min 0 min 98 W/m 43,9 km/h (6 Bft) 93,62 %
19.11.2015 10:38 12,8 C 13,3 C 11,7 C 84 % 0 lf 1013,2 hPa 0,0 l/m 0 min 0 min 97 W/m 43,9 km/h (6 Bft) 95,74 %
19.11.2015 10:40 12,8 C 13,3 C 11,7 C 84 % 0 lf 1013,2 hPa 0,0 l/m 0 min 0 min 101 W/m 46,0 km/h (6 Bft) 91,30 %
19.11.2015 10:42 12,9 C 13,3 C 11,7 C 84 % 0 lf 1013,2 hPa 0,0 l/m 0 min 0 min 109 W/m 33,5 km/h (5 Bft) 89,36 %
19.11.2015 10:44 12,9 C 13,9 C 11,7 C 84 % 0 lf 1013,2 hPa 0,0 l/m 0 min 0 min 121 W/m 37,7 km/h (5 Bft) 93,62 %
19.11.2015 10:46 12,9 C 13,9 C 12,2 C 84 % 0 lf 1013,3 hPa 0,0 l/m 0 min 0 min 127 W/m 35,6 km/h (5 Bft) 91,49 %
19.11.2015 10:48 12,9 C 13,9 C 12,2 C 84 % 0 lf 1013,3 hPa 0,0 l/m 0 min 0 min 131 W/m 46,0 km/h (6 Bft) 95,74 %
19.11.2015 10:50 12,9 C 13,9 C 12,2 C 84 % 0 lf 1013,2 hPa 0,0 l/m 0 min 0 min 131 W/m 50,2 km/h (7 Bft) 93,62 %
19.11.2015 10:52 12,9 C 13,9 C 12,2 C 84 % 0 lf 1013,4 hPa 0,0 l/m 0 min 0 min 139 W/m 41,8 km/h (6 Bft) 95,74 %
19.11.2015 10:54 12,9 C 13,9 C 12,2 C 83 % 0 lf 1013,3 hPa 0,0 l/m 2 min 0 min 154 W/m 39,7 km/h (6 Bft) 93,48 %
19.11.2015 10:56 12,9 C 13,9 C 12,2 C 83 % 0 lf 1013,3 hPa 0,0 l/m 0 min 0 min 144 W/m 43,9 km/h (6 Bft) 91,49 %
19.11.2015 10:58 13,0 C 13,9 C 12,2 C 82 % 0 lf 1013,3 hPa 0,0 l/m 0 min 0 min 130 W/m 35,6 km/h (5 Bft) 89,36 %
19.11.2015 11:00 13,0 C 13,9 C 12,2 C 82 % 0 lf 1013,2 hPa 0,0 l/m 0 min 0 min 123 W/m 46,0 km/h (6 Bft) 95,74 %
19.11.2015 11:02 13,0 C 13,9 C 12,2 C 82 % 0 lf 1013,3 hPa 0,0 l/m 0 min 0 min 130 W/m 37,7 km/h (5 Bft) 95,74 %
19.11.2015 11:04 13,1 C 13,9 C 12,2 C 82 % 0 lf 1013,3 hPa 0,0 l/m 0 min 0 min 138 W/m 31,4 km/h (5 Bft) 91,30 %
19.11.2015 11:06 13,1 C 13,9 C 12,2 C 81 % 0 lf 1013,3 hPa 0,0 l/m 0 min 0 min 136 W/m 35,6 km/h (5 Bft) 91,49 %
19.11.2015 11:08 13,1 C 13,9 C 12,2 C 81 % 0 lf 1013,3 hPa 0,0 l/m 0 min 0 min 133 W/m 31,4 km/h (5 Bft) 95,74 %
19.11.2015 11:10 13,1 C 14,4 C 12,2 C 81 % 0 lf 1013,2 hPa 0,0 l/m 0 min 0 min 150 W/m 37,7 km/h (5 Bft) 95,74 %
19.11.2015 11:12 13,2 C 14,4 C 12,2 C 81 % 0 lf 1013,2 hPa 0,0 l/m 2 min 0 min 162 W/m 35,6 km/h (5 Bft) 93,62 %
19.11.2015 11:14 13,2 C 14,4 C 12,2 C 81 % 0 lf 1013,2 hPa 0,0 l/m 0 min 0 min 144 W/m 37,7 km/h (5 Bft) 91,49 %
19.11.2015 11:16 13,2 C 13,9 C 12,2 C 81 % 0 lf 1013,1 hPa 0,0 l/m 0 min 0 min 101 W/m 29,3 km/h (5 Bft) 93,48 %
19.11.2015 11:18 13,2 C 13,9 C 12,2 C 81 % 0 lf 1013,1 hPa 0,0 l/m 0 min 0 min 83 W/m 43,9 km/h (6 Bft) 93,62 %
19.11.2015 11:20 13,2 C 13,9 C 12,2 C 81 % 0 lf 1013,2 hPa 0,0 l/m 0 min 0 min 107 W/m 31,4 km/h (5 Bft) 93,62 %
19.11.2015 11:22 13,2 C 13,9 C 12,2 C 81 % 0 lf 1013,3 hPa 0,0 l/m 0 min 0 min 116 W/m 33,5 km/h (5 Bft) 91,49 %
19.11.2015 11:24 13,2 C 13,9 C 12,2 C 81 % 0 lf 1013,3 hPa 0,0 l/m 0 min 0 min 118 W/m 35,6 km/h (5 Bft) 93,62 %
19.11.2015 11:26 13,2 C 13,9 C 12,2 C 81 % 0 lf 1013,3 hPa 0,0 l/m 0 min 0 min 106 W/m 33,5 km/h (5 Bft) 93,62 %
19.11.2015 11:28 13,2 C 13,9 C 12,2 C 81 % 0 lf 1013,2 hPa 0,0 l/m 0 min 0 min 101 W/m 27,2 km/h (4 Bft) 95,65 %
19.11.2015 11:30 13,2 C 13,9 C 12,2 C 81 % 0 lf 1013,3 hPa 0,0 l/m 0 min 0 min 108 W/m 35,6 km/h (5 Bft) 95,74 %
19.11.2015 11:32 13,2 C 13,9 C 12,2 C 81 % 0 lf 1013,4 hPa 0,0 l/m 0 min 0 min 111 W/m 37,7 km/h (5 Bft) 95,74 %
19.11.2015 11:34 13,2 C 13,9 C 12,2 C 81 % 0 lf 1013,3 hPa 0,0 l/m 0 min 0 min 116 W/m 27,2 km/h (4 Bft) 95,74 %
19.11.2015 11:36 13,2 C 13,9 C 12,2 C 81 % 0 lf 1013,4 hPa 0,0 l/m 0 min 0 min 124 W/m 43,9 km/h (6 Bft) 97,87 %
19.11.2015 11:38 13,2 C 13,9 C 12,2 C 81 % 0 lf 1013,4 hPa 0,0 l/m 0 min 0 min 124 W/m 33,5 km/h (5 Bft) 93,62 %
19.11.2015 11:40 13,3 C 13,9 C 12,2 C 80 % 0 lf 1013,4 hPa 0,0 l/m 0 min 0 min 121 W/m 29,3 km/h (5 Bft) 93,48 %
19.11.2015 11:42 13,3 C 13,9 C 12,2 C 80 % 0 lf 1013,4 hPa 0,0 l/m 0 min 0 min 121 W/m 41,8 km/h (6 Bft) 95,74 %
19.11.2015 11:44 13,3 C 13,9 C 12,2 C 80 % 0 lf 1013,5 hPa 0,0 l/m 0 min 0 min 119 W/m 43,9 km/h (6 Bft) 93,62 %
19.11.2015 11:46 13,3 C 13,9 C 12,2 C 80 % 0 lf 1013,4 hPa 0,0 l/m 0 min 0 min 112 W/m 39,7 km/h (6 Bft) 91,49 %
19.11.2015 11:48 13,3 C 13,9 C 12,2 C 80 % 0 lf 1013,5 hPa 0,0 l/m 0 min 0 min 105 W/m 20,9 km/h (4 Bft) 93,62 %
19.11.2015 11:50 13,3 C 13,9 C 12,2 C 80 % 0 lf 1013,4 hPa 0,0 l/m 0 min 0 min 102 W/m 29,3 km/h (5 Bft) 97,87 %
19.11.2015 11:52 13,3 C 13,9 C 12,2 C 80 % 0 lf 1013,4 hPa 0,0 l/m 0 min 0 min 83 W/m 33,5 km/h (5 Bft) 97,83 %
19.11.2015 11:54 13,3 C 13,9 C 12,2 C 80 % 0 lf 1013,5 hPa 0,0 l/m 0 min 0 min 68 W/m 31,4 km/h (5 Bft) 97,87 %
19.11.2015 11:56 13,3 C 13,9 C 12,2 C 80 % 0 lf 1013,4 hPa 0,0 l/m 0 min 0 min 78 W/m 39,7 km/h (6 Bft) 100,00 %
19.11.2015 11:58 13,3 C 13,9 C 12,2 C 81 % 0 lf 1013,4 hPa 0,0 l/m 0 min 0 min 85 W/m 31,4 km/h (5 Bft) 100,00 %
19.11.2015 12:00 13,3 C 13,9 C 12,2 C 81 % 0 lf 1013,4 hPa 0,0 l/m 0 min 0 min 96 W/m 33,5 km/h (5 Bft) 95,74 %
19.11.2015 12:02 13,3 C 13,9 C 12,2 C 81 % 0 lf 1013,4 hPa 0,0 l/m 0 min 0 min 102 W/m 31,4 km/h (5 Bft) 100,00 %
19.11.2015 12:04 13,3 C 13,9 C 12,2 C 81 % 0 lf 1013,3 hPa 0,0 l/m 0 min 0 min 104 W/m 33,5 km/h (5 Bft) 97,83 %
19.11.2015 12:06 13,3 C 13,9 C 12,2 C 81 % 0 lf 1013,3 hPa 0,0 l/m 0 min 0 min 102 W/m 29,3 km/h (5 Bft) 97,87 %
19.11.2015 12:08 13,3 C 13,9 C 12,2 C 81 % 0 lf 1013,3 hPa 0,0 l/m 0 min 0 min 95 W/m 25,1 km/h (4 Bft) 100,00 %
19.11.2015 12:10 13,3 C 13,9 C 12,2 C 82 % 0 lf 1013,3 hPa 0,0 l/m 0 min 0 min 84 W/m 31,4 km/h (5 Bft) 95,74 %
19.11.2015 12:12 13,3 C 13,9 C 12,2 C 82 % 0 lf 1013,3 hPa 0,0 l/m 0 min 0 min 66 W/m 29,3 km/h (5 Bft) 97,87 %
19.11.2015 12:14 13,3 C 13,3 C 12,2 C 82 % 2 lf 1013,2 hPa 0,0 l/m 0 min 0 min 41 W/m 27,2 km/h (4 Bft) 100,00 %
19.11.2015 12:16 13,3 C 13,3 C 11,7 C 82 % 10 lf 1013,2 hPa 0,0 l/m 0 min 0 min 35 W/m 33,5 km/h (5 Bft) 97,87 %
19.11.2015 12:18 13,2 C 13,3 C 11,7 C 82 % 7 lf 1013,2 hPa 0,0 l/m 0 min 2 min 39 W/m 33,5 km/h (5 Bft) 97,87 %
19.11.2015 12:20 13,2 C 13,3 C 11,7 C 82 % 1 lf 1013,2 hPa 0,0 l/m 0 min 2 min 24 W/m 23,0 km/h (4 Bft) 100,00 %
19.11.2015 12:22 13,2 C 13,3 C 11,7 C 83 % 3 lf 1013,2 hPa 0,0 l/m 0 min 0 min 21 W/m 23,0 km/h (4 Bft) 100,00 %
19.11.2015 12:24 13,2 C 13,3 C 11,7 C 83 % 0 lf 1013,2 hPa 0,0 l/m 0 min 2 min 33 W/m 29,3 km/h (5 Bft) 97,87 %
19.11.2015 12:26 13,1 C 13,3 C 11,7 C 83 % 0 lf 1013,3 hPa 0,0 l/m 0 min 0 min 35 W/m 39,7 km/h (6 Bft) 97,83 %
19.11.2015 12:28 13,1 C 13,3 C 11,7 C 83 % 1 lf 1013,3 hPa 0,0 l/m 0 min 2 min 26 W/m 43,9 km/h (6 Bft) 97,87 %
19.11.2015 12:30 13,1 C 12,8 C 10,6 C 83 % 15 lf 1013,3 hPa 0,0 l/m 0 min 2 min 18 W/m 27,2 km/h (4 Bft) 97,87 %
19.11.2015 12:32 13,0 C 12,8 C 10,6 C 84 % 15 lf 1013,1 hPa 0,0 l/m 0 min 2 min 25 W/m 20,9 km/h (4 Bft) 97,87 %
19.11.2015 12:34 13,0 C 12,8 C 10,6 C 84 % 15 lf 1013,1 hPa 0,0 l/m 0 min 2 min 32 W/m 27,2 km/h (4 Bft) 97,87 %
19.11.2015 12:36 12,9 C 12,8 C 10,0 C 84 % 15 lf 1013,1 hPa 0,0 l/m 0 min 2 min 38 W/m 37,7 km/h (5 Bft) 93,62 %
19.11.2015 12:38 12,9 C 12,8 C 10,6 C 84 % 15 lf 1013,2 hPa 0,0 l/m 0 min 0 min 45 W/m 37,7 km/h (5 Bft) 93,48 %
19.11.2015 12:40 12,8 C 12,8 C 10,6 C 85 % 15 lf 1013,3 hPa 0,0 l/m 0 min 2 min 56 W/m 29,3 km/h (5 Bft) 97,87 %
19.11.2015 12:42 12,8 C 12,8 C 10,6 C 85 % 15 lf 1013,3 hPa 0,0 l/m 0 min 2 min 63 W/m 31,4 km/h (5 Bft) 93,62 %
19.11.2015 12:44 12,8 C 13,3 C 10,6 C 84 % 10 lf 1013,1 hPa 0,0 l/m 0 min 2 min 64 W/m 31,4 km/h (5 Bft) 97,87 %
19.11.2015 12:46 12,8 C 13,3 C 10,6 C 84 % 2 lf 1013,1 hPa 0,0 l/m 0 min 2 min 64 W/m 27,2 km/h (4 Bft) 97,87 %
19.11.2015 12:48 12,8 C 13,3 C 10,6 C 84 % 0 lf 1013,1 hPa 0,0 l/m 0 min 2 min 63 W/m 31,4 km/h (5 Bft) 93,62 %
19.11.2015 12:50 12,8 C 13,3 C 10,6 C 84 % 0 lf 1013,1 hPa 0,0 l/m 0 min 2 min 62 W/m 31,4 km/h (5 Bft) 100,00 %
19.11.2015 12:52 12,8 C 13,3 C 11,1 C 84 % 0 lf 1013,0 hPa 0,0 l/m 0 min 0 min 57 W/m 29,3 km/h (5 Bft) 97,87 %
19.11.2015 12:54 12,8 C 13,3 C 11,1 C 84 % 0 lf 1013,0 hPa 0,0 l/m 0 min 0 min 48 W/m 29,3 km/h (5 Bft) 97,87 %
19.11.2015 12:56 12,8 C 13,3 C 11,1 C 83 % 0 lf 1013,0 hPa 0,0 l/m 0 min 2 min 38 W/m 35,6 km/h (5 Bft) 95,74 %
19.11.2015 12:58 12,8 C 13,3 C 11,1 C 83 % 0 lf 1012,9 hPa 0,0 l/m 0 min 0 min 42 W/m 33,5 km/h (5 Bft) 97,87 %
19.11.2015 13:00 12,8 C 13,3 C 11,1 C 83 % 0 lf 1013,0 hPa 0,0 l/m 0 min 0 min 50 W/m 29,3 km/h (5 Bft) 97,87 %
19.11.2015 13:02 12,8 C 13,3 C 11,1 C 83 % 0 lf 1012,9 hPa 0,0 l/m 0 min 0 min 52 W/m 29,3 km/h (5 Bft) 100,00 %
19.11.2015 13:04 12,8 C 13,3 C 11,1 C 83 % 0 lf 1012,9 hPa 0,0 l/m 0 min 0 min 48 W/m 29,3 km/h (5 Bft) 100,00 %
19.11.2015 13:06 12,8 C 13,3 C 11,7 C 83 % 0 lf 1012,9 hPa 0,0 l/m 0 min 2 min 43 W/m 39,7 km/h (6 Bft) 97,87 %
19.11.2015 13:08 12,8 C 13,3 C 11,7 C 83 % 0 lf 1012,9 hPa 0,0 l/m 0 min 2 min 40 W/m 29,3 km/h (5 Bft) 97,87 %
19.11.2015 13:10 12,8 C 13,3 C 11,7 C 83 % 0 lf 1012,9 hPa 0,0 l/m 0 min 0 min 39 W/m 35,6 km/h (5 Bft) 100,00 %
19.11.2015 13:12 12,8 C 13,3 C 11,7 C 83 % 0 lf 1012,8 hPa 0,0 l/m 0 min 0 min 44 W/m 33,5 km/h (5 Bft) 97,83 %
19.11.2015 13:14 12,8 C 13,3 C 11,7 C 83 % 0 lf 1012,8 hPa 0,0 l/m 0 min 2 min 45 W/m 41,8 km/h (6 Bft) 97,87 %
19.11.2015 13:16 12,8 C 13,3 C 11,7 C 83 % 0 lf 1012,8 hPa 0,0 l/m 0 min 2 min 48 W/m 39,7 km/h (6 Bft) 100,00 %
19.11.2015 13:18 12,8 C 13,3 C 11,7 C 83 % 1 lf 1012,7 hPa 0,0 l/m 0 min 2 min 51 W/m 31,4 km/h (5 Bft) 100,00 %
19.11.2015 13:20 12,8 C 13,3 C 11,7 C 83 % 0 lf 1012,7 hPa 0,0 l/m 0 min 0 min 54 W/m 35,6 km/h (5 Bft) 95,74 %
19.11.2015 13:22 12,8 C 13,3 C 11,7 C 83 % 0 lf 1012,7 hPa 0,0 l/m 0 min 2 min 52 W/m 31,4 km/h (5 Bft) 97,87 %
19.11.2015 13:24 12,8 C 13,3 C 11,7 C 84 % 0 lf 1012,7 hPa 0,0 l/m 0 min 0 min 51 W/m 25,1 km/h (4 Bft) 100,00 %
19.11.2015 13:26 12,8 C 13,3 C 11,7 C 84 % 1 lf 1012,7 hPa 0,0 l/m 0 min 2 min 47 W/m 27,2 km/h (4 Bft) 95,65 %
19.11.2015 13:28 12,8 C 12,8 C 11,7 C 84 % 15 lf 1012,7 hPa 0,0 l/m 0 min 2 min 43 W/m 29,3 km/h (5 Bft) 97,87 %
19.11.2015 13:30 12,8 C 12,8 C 11,1 C 84 % 15 lf 1012,7 hPa 0,0 l/m 0 min 2 min 35 W/m 37,7 km/h (5 Bft) 97,87 %
19.11.2015 13:32 12,8 C 12,8 C 11,1 C 84 % 15 lf 1012,8 hPa 0,0 l/m 0 min 2 min 34 W/m 25,1 km/h (4 Bft) 97,87 %
19.11.2015 13:34 12,8 C 12,8 C 11,1 C 84 % 13 lf 1012,8 hPa 0,0 l/m 0 min 0 min 27 W/m 27,2 km/h (4 Bft) 93,62 %
19.11.2015 13:36 12,8 C 12,8 C 11,1 C 84 % 11 lf 1012,7 hPa 0,0 l/m 0 min 2 min 27 W/m 35,6 km/h (5 Bft) 93,48 %
19.11.2015 13:38 12,8 C 12,8 C 11,1 C 84 % 2 lf 1012,7 hPa 0,0 l/m 0 min 2 min 30 W/m 31,4 km/h (5 Bft) 93,62 %
19.11.2015 13:40 12,8 C 12,8 C 11,1 C 84 % 3 lf 1012,7 hPa 0,0 l/m 0 min 2 min 28 W/m 29,3 km/h (5 Bft) 93,62 %
19.11.2015 13:42 12,8 C 12,8 C 11,1 C 84 % 0 lf 1012,7 hPa 0,0 l/m 0 min 2 min 24 W/m 31,4 km/h (5 Bft) 93,62 %
19.11.2015 13:44 12,7 C 12,8 C 11,1 C 84 % 0 lf 1012,8 hPa 0,0 l/m 0 min 0 min 27 W/m 27,2 km/h (4 Bft) 95,74 %
19.11.2015 13:46 12,7 C 12,8 C 10,6 C 84 % 2 lf 1012,7 hPa 0,0 l/m 0 min 2 min 28 W/m 29,3 km/h (5 Bft) 93,62 %
19.11.2015 13:48 12,7 C 12,8 C 10,6 C 84 % 3 lf 1012,6 hPa 0,0 l/m 0 min 2 min 32 W/m 27,2 km/h (4 Bft) 93,48 %
19.11.2015 13:50 12,7 C 12,8 C 10,6 C 84 % 4 lf 1012,7 hPa 0,0 l/m 0 min 2 min 33 W/m 23,0 km/h (4 Bft) 93,62 %
19.11.2015 13:52 12,7 C 12,8 C 10,6 C 85 % 14 lf 1012,7 hPa 0,0 l/m 0 min 2 min 32 W/m 20,9 km/h (4 Bft) 93,62 %
19.11.2015 13:54 12,7 C 12,8 C 10,6 C 85 % 14 lf 1012,7 hPa 0,0 l/m 0 min 2 min 29 W/m 29,3 km/h (5 Bft) 95,74 %
19.11.2015 13:56 12,7 C 12,8 C 10,6 C 85 % 15 lf 1012,6 hPa 0,0 l/m 0 min 2 min 28 W/m 31,4 km/h (5 Bft) 91,49 %
19.11.2015 13:58 12,7 C 12,2 C 10,6 C 85 % 15 lf 1012,7 hPa 0,0 l/m 0 min 2 min 28 W/m 33,5 km/h (5 Bft) 95,74 %
19.11.2015 14:00 12,6 C 12,2 C 10,0 C 85 % 15 lf 1012,7 hPa 0,0 l/m 0 min 2 min 26 W/m 27,2 km/h (4 Bft) 91,30 %
19.11.2015 14:02 12,6 C 11,7 C 9,4 C 85 % 15 lf 1012,7 hPa 0,2 l/m 0 min 2 min 26 W/m 31,4 km/h (5 Bft) 93,62 %
19.11.2015 14:04 12,4 C 10,6 C 9,4 C 85 % 15 lf 1012,7 hPa 0,0 l/m 0 min 2 min 25 W/m 39,7 km/h (6 Bft) 87,23 %
19.11.2015 14:06 12,3 C 10,6 C 9,4 C 85 % 15 lf 1012,8 hPa 0,0 l/m 0 min 2 min 23 W/m 35,6 km/h (5 Bft) 93,62 %
19.11.2015 14:08 12,2 C 10,6 C 8,9 C 85 % 15 lf 1012,7 hPa 0,0 l/m 0 min 2 min 23 W/m 31,4 km/h (5 Bft) 89,36 %
19.11.2015 14:10 12,1 C 10,0 C 8,9 C 85 % 15 lf 1012,8 hPa 0,2 l/m 0 min 2 min 25 W/m 29,3 km/h (5 Bft) 91,49 %
19.11.2015 14:12 11,9 C 10,0 C 8,9 C 85 % 15 lf 1012,7 hPa 0,0 l/m 0 min 2 min 24 W/m 29,3 km/h (5 Bft) 89,13 %
19.11.2015 14:14 11,8 C 10,0 C 8,9 C 85 % 15 lf 1012,8 hPa 0,0 l/m 0 min 2 min 23 W/m 39,7 km/h (6 Bft) 93,62 %
19.11.2015 14:16 11,7 C 10,0 C 8,9 C 85 % 15 lf 1012,7 hPa 0,0 l/m 0 min 2 min 23 W/m 31,4 km/h (5 Bft) 91,49 %
19.11.2015 14:18 11,6 C 10,0 C 8,9 C 85 % 15 lf 1012,8 hPa 0,0 l/m 0 min 2 min 20 W/m 29,3 km/h (5 Bft) 95,74 %
19.11.2015 14:20 11,5 C 10,0 C 8,3 C 85 % 15 lf 1012,8 hPa 0,0 l/m 0 min 2 min 19 W/m 25,1 km/h (4 Bft) 93,62 %
19.11.2015 14:22 11,4 C 9,4 C 8,3 C 85 % 15 lf 1012,8 hPa 0,0 l/m 0 min 2 min 19 W/m 29,3 km/h (5 Bft) 95,74 %
19.11.2015 14:24 11,4 C 10,0 C 8,3 C 85 % 15 lf 1012,8 hPa 0,2 l/m 0 min 2 min 21 W/m 20,9 km/h (4 Bft) 95,65 %
19.11.2015 14:26 11,3 C 10,0 C 8,3 C 86 % 15 lf 1012,9 hPa 0,0 l/m 0 min 2 min 19 W/m 23,0 km/h (4 Bft) 89,36 %
19.11.2015 14:28 11,2 C 9,4 C 8,3 C 86 % 15 lf 1012,9 hPa 0,0 l/m 0 min 2 min 19 W/m 29,3 km/h (5 Bft) 87,23 %
19.11.2015 14:30 11,2 C 9,4 C 8,3 C 86 % 15 lf 1012,9 hPa 0,0 l/m 0 min 2 min 19 W/m 25,1 km/h (4 Bft) 93,62 %
19.11.2015 14:32 11,1 C 9,4 C 8,3 C 87 % 15 lf 1012,8 hPa 0,0 l/m 0 min 2 min 19 W/m 20,9 km/h (4 Bft) 95,74 %
19.11.2015 14:34 11,0 C 9,4 C 8,3 C 87 % 15 lf 1012,9 hPa 0,0 l/m 0 min 2 min 18 W/m 35,6 km/h (5 Bft) 93,62 %
19.11.2015 14:36 10,9 C 9,4 C 8,3 C 87 % 15 lf 1013,0 hPa 0,2 l/m 0 min 2 min 16 W/m 27,2 km/h (4 Bft) 95,65 %
19.11.2015 14:38 10,8 C 9,4 C 7,8 C 87 % 15 lf 1012,9 hPa 0,0 l/m 0 min 2 min 16 W/m 27,2 km/h (4 Bft) 91,49 %
19.11.2015 14:40 10,8 C 9,4 C 7,8 C 87 % 15 lf 1012,9 hPa 0,2 l/m 0 min 2 min 14 W/m 29,3 km/h (5 Bft) 93,62 %
19.11.2015 14:42 10,7 C 8,9 C 7,8 C 87 % 15 lf 1012,9 hPa 0,0 l/m 0 min 2 min 14 W/m 27,2 km/h (4 Bft) 97,87 %
19.11.2015 14:44 10,6 C 8,9 C 7,8 C 87 % 15 lf 1012,8 hPa 0,2 l/m 0 min 2 min 14 W/m 23,0 km/h (4 Bft) 97,87 %
19.11.2015 14:46 10,5 C 8,9 C 7,8 C 88 % 15 lf 1012,8 hPa 0,0 l/m 0 min 2 min 16 W/m 25,1 km/h (4 Bft) 95,65 %
19.11.2015 14:48 10,5 C 8,9 C 7,8 C 88 % 15 lf 1012,9 hPa 0,2 l/m 0 min 2 min 18 W/m 27,2 km/h (4 Bft) 95,74 %
19.11.2015 14:50 10,4 C 8,9 C 7,8 C 88 % 15 lf 1012,8 hPa 0,0 l/m 0 min 2 min 18 W/m 25,1 km/h (4 Bft) 95,74 %
19.11.2015 14:52 10,3 C 8,9 C 7,8 C 88 % 15 lf 1012,8 hPa 0,0 l/m 0 min 2 min 16 W/m 20,9 km/h (4 Bft) 97,87 %
19.11.2015 14:54 10,3 C 8,9 C 7,8 C 89 % 15 lf 1012,7 hPa 0,0 l/m 0 min 2 min 16 W/m 27,2 km/h (4 Bft) 95,74 %
19.11.2015 14:56 10,2 C 8,9 C 7,8 C 89 % 15 lf 1012,8 hPa 0,2 l/m 0 min 2 min 15 W/m 29,3 km/h (5 Bft) 100,00 %
19.11.2015 14:58 10,2 C 8,9 C 7,8 C 89 % 15 lf 1012,8 hPa 0,0 l/m 0 min 2 min 14 W/m 18,8 km/h (3 Bft) 97,83 %
19.11.2015 15:00 10,1 C 8,9 C 7,8 C 89 % 15 lf 1012,7 hPa 0,0 l/m 0 min 2 min 14 W/m 23,0 km/h (4 Bft) 100,00 %
19.11.2015 15:02 10,1 C 8,9 C 7,8 C 89 % 15 lf 1012,7 hPa 0,2 l/m 0 min 2 min 14 W/m 27,2 km/h (4 Bft) 100,00 %
19.11.2015 15:04 10,0 C 8,9 C 7,8 C 90 % 15 lf 1012,7 hPa 0,0 l/m 0 min 2 min 16 W/m 18,8 km/h (3 Bft) 100,00 %
19.11.2015 15:06 10,0 C 8,9 C 7,8 C 90 % 15 lf 1012,7 hPa 0,0 l/m 0 min 2 min 17 W/m 18,8 km/h (3 Bft) 100,00 %
19.11.2015 15:08 9,9 C 8,9 C 7,8 C 90 % 15 lf 1012,7 hPa 0,0 l/m 0 min 2 min 16 W/m 14,6 km/h (3 Bft) 100,00 %
19.11.2015 15:10 9,9 C 8,9 C 7,8 C 90 % 15 lf 1012,7 hPa 0,0 l/m 0 min 2 min 16 W/m 18,8 km/h (3 Bft) 95,65 %
19.11.2015 15:12 9,9 C 8,9 C 7,8 C 90 % 15 lf 1012,7 hPa 0,0 l/m 0 min 2 min 15 W/m 23,0 km/h (4 Bft) 95,74 %
19.11.2015 15:14 9,8 C 8,9 C 7,8 C 90 % 15 lf 1012,7 hPa 0,0 l/m 0 min 2 min 14 W/m 18,8 km/h (3 Bft) 97,87 %
19.11.2015 15:16 9,8 C 8,9 C 7,8 C 91 % 15 lf 1012,6 hPa 0,0 l/m 0 min 2 min 12 W/m 25,1 km/h (4 Bft) 100,00 %
19.11.2015 15:18 9,8 C 8,9 C 7,8 C 91 % 15 lf 1012,6 hPa 0,2 l/m 0 min 2 min 12 W/m 31,4 km/h (5 Bft) 100,00 %
19.11.2015 15:20 9,7 C 8,9 C 7,8 C 91 % 15 lf 1012,6 hPa 0,0 l/m 0 min 2 min 11 W/m 14,6 km/h (3 Bft) 100,00 %
19.11.2015 15:22 9,7 C 8,9 C 7,8 C 91 % 15 lf 1012,6 hPa 0,0 l/m 0 min 2 min 11 W/m 18,8 km/h (3 Bft) 100,00 %
19.11.2015 15:24 9,7 C 8,9 C 7,8 C 91 % 15 lf 1012,5 hPa 0,0 l/m 0 min 2 min 11 W/m 14,6 km/h (3 Bft) 100,00 %
19.11.2015 15:26 9,6 C 8,9 C 7,8 C 91 % 15 lf 1012,6 hPa 0,0 l/m 0 min 2 min 11 W/m 20,9 km/h (4 Bft) 95,74 %
19.11.2015 15:28 9,6 C 8,9 C 7,8 C 91 % 15 lf 1012,5 hPa 0,0 l/m 0 min 2 min 11 W/m 20,9 km/h (4 Bft) 100,00 %
19.11.2015 15:30 9,6 C 8,9 C 7,8 C 91 % 15 lf 1012,5 hPa 0,0 l/m 0 min 2 min 12 W/m 18,8 km/h (3 Bft) 97,87 %
19.11.2015 15:32 9,6 C 8,9 C 7,8 C 91 % 15 lf 1012,5 hPa 0,2 l/m 0 min 2 min 12 W/m 10,5 km/h (2 Bft) 97,87 %
19.11.2015 15:34 9,5 C 8,9 C 7,8 C 92 % 15 lf 1012,5 hPa 0,0 l/m 0 min 2 min 11 W/m 16,7 km/h (3 Bft) 95,65 %
19.11.2015 15:36 9,5 C 8,9 C 7,8 C 92 % 15 lf 1012,5 hPa 0,0 l/m 0 min 2 min 11 W/m 20,9 km/h (4 Bft) 97,87 %
19.11.2015 15:38 9,5 C 8,9 C 7,8 C 92 % 15 lf 1012,5 hPa 0,0 l/m 0 min 2 min 11 W/m 16,7 km/h (3 Bft) 97,87 %
19.11.2015 15:40 9,4 C 8,9 C 7,8 C 92 % 15 lf 1012,6 hPa 0,0 l/m 0 min 2 min 11 W/m 14,6 km/h (3 Bft) 100,00 %
19.11.2015 15:42 9,4 C 8,9 C 7,8 C 92 % 15 lf 1012,6 hPa 0,0 l/m 0 min 2 min 11 W/m 18,8 km/h (3 Bft) 97,87 %
19.11.2015 15:44 9,4 C 8,9 C 7,8 C 92 % 15 lf 1012,5 hPa 0,0 l/m 0 min 2 min 9 W/m 20,9 km/h (4 Bft) 100,00 %
19.11.2015 15:46 9,4 C 8,9 C 7,8 C 92 % 15 lf 1012,5 hPa 0,2 l/m 0 min 2 min 9 W/m 20,9 km/h (4 Bft) 97,83 %
19.11.2015 15:48 9,4 C 8,9 C 7,8 C 92 % 15 lf 1012,5 hPa 0,0 l/m 0 min 2 min 9 W/m 16,7 km/h (3 Bft) 100,00 %
19.11.2015 15:50 9,4 C 8,3 C 7,8 C 92 % 15 lf 1012,4 hPa 0,0 l/m 0 min 2 min 9 W/m 16,7 km/h (3 Bft) 100,00 %
19.11.2015 15:52 9,4 C 8,9 C 7,8 C 92 % 15 lf 1012,3 hPa 0,2 l/m 0 min 2 min 9 W/m 20,9 km/h (4 Bft) 97,87 %
19.11.2015 15:54 9,4 C 8,9 C 7,8 C 92 % 15 lf 1012,4 hPa 0,0 l/m 0 min 2 min 7 W/m 14,6 km/h (3 Bft) 95,74 %
19.11.2015 15:56 9,4 C 8,3 C 7,8 C 93 % 15 lf 1012,5 hPa 0,0 l/m 0 min 2 min 7 W/m 18,8 km/h (3 Bft) 97,87 %
19.11.2015 15:58 9,3 C 8,3 C 7,8 C 93 % 15 lf 1012,5 hPa 0,0 l/m 0 min 2 min 5 W/m 14,6 km/h (3 Bft) 97,83 %
19.11.2015 16:00 9,3 C 8,3 C 7,8 C 93 % 15 lf 1012,5 hPa 0,2 l/m 0 min 2 min 5 W/m 12,6 km/h (3 Bft) 100,00 %
19.11.2015 16:02 9,3 C 8,3 C 7,8 C 93 % 15 lf 1012,3 hPa 0,0 l/m 0 min 2 min 6 W/m 14,6 km/h (3 Bft) 97,87 %
19.11.2015 16:04 9,3 C 8,3 C 7,8 C 93 % 15 lf 1012,1 hPa 0,2 l/m 0 min 2 min 7 W/m 16,7 km/h (3 Bft) 97,87 %
19.11.2015 16:06 9,3 C 8,3 C 7,8 C 93 % 15 lf 1012,0 hPa 0,0 l/m 0 min 2 min 7 W/m 12,6 km/h (3 Bft) 95,74 %
19.11.2015 16:08 9,2 C 8,3 C 7,8 C 93 % 15 lf 1011,8 hPa 0,0 l/m 0 min 2 min 7 W/m 10,5 km/h (2 Bft) 100,00 %
19.11.2015 16:10 9,2 C 8,3 C 7,2 C 93 % 15 lf 1011,8 hPa 0,0 l/m 0 min 2 min 5 W/m 10,5 km/h (2 Bft) 97,87 %
19.11.2015 16:12 9,2 C 8,3 C 7,8 C 93 % 15 lf 1011,9 hPa 0,0 l/m 0 min 2 min 5 W/m 10,5 km/h (2 Bft) 97,87 %
19.11.2015 16:14 9,2 C 8,3 C 7,8 C 93 % 15 lf 1011,9 hPa 0,0 l/m 0 min 2 min 5 W/m 16,7 km/h (3 Bft) 100,00 %
19.11.2015 16:16 9,2 C 8,3 C 7,2 C 93 % 15 lf 1011,8 hPa 0,2 l/m 0 min 2 min 5 W/m 10,5 km/h (2 Bft) 97,87 %
19.11.2015 16:18 9,2 C 8,3 C 7,2 C 93 % 15 lf 1011,5 hPa 0,0 l/m 0 min 2 min 2 W/m 16,7 km/h (3 Bft) 97,87 %
19.11.2015 16:20 9,1 C 8,3 C 7,2 C 93 % 15 lf 1011,4 hPa 0,0 l/m 0 min 2 min 0 W/m 12,6 km/h (3 Bft) 97,83 %
19.11.2015 16:22 9,1 C 8,3 C 7,2 C 93 % 15 lf 1011,5 hPa 0,0 l/m 0 min 2 min 0 W/m 10,5 km/h (2 Bft) 95,74 %
19.11.2015 16:24 9,1 C 8,3 C 7,2 C 93 % 15 lf 1011,6 hPa 0,0 l/m 0 min 2 min 0 W/m 12,6 km/h (3 Bft) 95,74 %
19.11.2015 16:26 9,1 C 8,3 C 7,2 C 93 % 15 lf 1011,8 hPa 0,0 l/m 0 min 2 min 0 W/m 12,6 km/h (3 Bft) 97,87 %
19.11.2015 16:28 9,1 C 8,3 C 7,2 C 93 % 15 lf 1011,6 hPa 0,0 l/m 0 min 2 min 0 W/m 12,6 km/h (3 Bft) 97,87 %
19.11.2015 16:30 9,0 C 8,3 C 7,2 C 93 % 15 lf 1011,5 hPa 0,0 l/m 0 min 2 min 0 W/m 10,5 km/h (2 Bft) 95,74 %
19.11.2015 16:32 9,0 C 8,3 C 7,2 C 94 % 15 lf 1011,6 hPa 0,0 l/m 0 min 0 min 0 W/m 8,4 km/h (2 Bft) 97,83 %
19.11.2015 16:34 9,0 C 8,3 C 7,2 C 94 % 15 lf 1011,6 hPa 0,0 l/m 0 min 2 min 0 W/m 6,3 km/h (2 Bft) 89,36 %
19.11.2015 16:36 9,0 C 8,3 C 7,2 C 93 % 15 lf 1011,9 hPa 0,2 l/m 0 min 2 min 0 W/m 12,6 km/h (3 Bft) 95,74 %
19.11.2015 16:38 8,9 C 8,3 C 7,2 C 93 % 15 lf 1011,9 hPa 0,0 l/m 0 min 2 min 0 W/m 6,3 km/h (2 Bft) 93,62 %
19.11.2015 16:40 8,9 C 8,3 C 7,2 C 93 % 15 lf 1011,6 hPa 0,0 l/m 0 min 2 min 0 W/m 6,3 km/h (2 Bft) 89,36 %
19.11.2015 16:42 8,9 C 8,3 C 7,2 C 94 % 15 lf 1011,5 hPa 0,0 l/m 0 min 2 min 0 W/m 16,7 km/h (3 Bft) 89,36 %
19.11.2015 16:44 8,9 C 8,3 C 7,2 C 94 % 15 lf 1011,5 hPa 0,0 l/m 0 min 2 min 0 W/m 10,5 km/h (2 Bft) 89,13 %
19.11.2015 16:46 8,9 C 8,3 C 7,2 C 94 % 15 lf 1011,4 hPa 0,0 l/m 0 min 2 min 0 W/m 8,4 km/h (2 Bft) 93,62 %
19.11.2015 16:48 8,9 C 8,3 C 7,2 C 94 % 15 lf 1011,4 hPa 0,0 l/m 0 min 2 min 0 W/m 6,3 km/h (2 Bft) 95,74 %
19.11.2015 16:50 8,9 C 8,3 C 7,2 C 94 % 15 lf 1011,3 hPa 0,0 l/m 0 min 2 min 0 W/m 8,4 km/h (2 Bft) 91,49 %
19.11.2015 16:52 8,8 C 8,3 C 7,2 C 94 % 15 lf 1011,4 hPa 0,0 l/m 0 min 0 min 0 W/m 10,5 km/h (2 Bft) 95,74 %
19.11.2015 16:54 8,8 C 8,3 C 7,2 C 94 % 15 lf 1011,5 hPa 0,0 l/m 0 min 0 min 0 W/m 8,4 km/h (2 Bft) 95,74 %
19.11.2015 16:56 8,8 C 8,3 C 7,2 C 94 % 15 lf 1011,2 hPa 0,0 l/m 0 min 2 min 0 W/m 8,4 km/h (2 Bft) 95,65 %
19.11.2015 16:58 8,8 C 8,3 C 7,2 C 94 % 15 lf 1011,0 hPa 0,0 l/m 0 min 0 min 0 W/m 10,5 km/h (2 Bft) 91,49 %
19.11.2015 17:00 8,8 C 8,3 C 7,2 C 94 % 15 lf 1011,0 hPa 0,0 l/m 0 min 0 min 0 W/m 6,3 km/h (2 Bft) 97,87 %
19.11.2015 17:02 8,8 C 8,3 C 7,2 C 94 % 15 lf 1010,9 hPa 0,0 l/m 0 min 0 min 0 W/m 8,4 km/h (2 Bft) 91,49 %
19.11.2015 17:04 8,8 C 8,3 C 7,2 C 94 % 15 lf 1010,8 hPa 0,0 l/m 0 min 0 min 0 W/m 8,4 km/h (2 Bft) 95,74 %
19.11.2015 17:06 8,7 C 8,3 C 7,2 C 94 % 15 lf 1010,7 hPa 0,2 l/m 0 min 0 min 0 W/m 6,3 km/h (2 Bft) 93,48 %
19.11.2015 17:08 8,7 C 8,3 C 7,2 C 94 % 15 lf 1010,6 hPa 0,0 l/m 0 min 0 min 0 W/m 6,3 km/h (2 Bft) 95,74 %
19.11.2015 17:10 8,7 C 8,3 C 7,2 C 94 % 15 lf 1010,9 hPa 0,0 l/m 0 min 0 min 0 W/m 6,3 km/h (2 Bft) 93,62 %
19.11.2015 17:12 8,7 C 8,3 C 7,2 C 94 % 15 lf 1010,9 hPa 0,0 l/m 0 min 0 min 0 W/m 8,4 km/h (2 Bft) 93,62 %
19.11.2015 17:14 8,7 C 8,3 C 7,2 C 94 % 15 lf 1010,8 hPa 0,0 l/m 0 min 0 min 0 W/m 6,3 km/h (2 Bft) 95,74 %
19.11.2015 17:16 8,7 C 8,3 C 7,2 C 94 % 15 lf 1010,8 hPa 0,0 l/m 0 min 0 min 0 W/m 4,2 km/h (1 Bft) 95,74 %
19.11.2015 17:18 8,7 C 8,3 C 7,2 C 94 % 15 lf 1010,8 hPa 0,0 l/m 0 min 0 min 0 W/m 6,3 km/h (2 Bft) 95,65 %
19.11.2015 17:20 8,7 C 8,3 C 7,2 C 94 % 15 lf 1010,9 hPa 0,0 l/m 0 min 0 min 0 W/m 4,2 km/h (1 Bft) 85,11 %
19.11.2015 17:22 8,7 C 8,3 C 7,2 C 94 % 15 lf 1010,9 hPa 0,0 l/m 0 min 0 min 0 W/m 6,3 km/h (2 Bft) 98,00 %
19.11.2015 17:24 8,7 C 8,3 C 7,2 C 94 % 15 lf 1010,9 hPa 0,0 l/m 0 min 0 min 0 W/m 6,3 km/h (2 Bft) 97,87 %
19.11.2015 17:26 8,7 C 8,3 C 7,2 C 94 % 15 lf 1010,8 hPa 0,0 l/m 0 min 0 min 0 W/m 4,2 km/h (1 Bft) 97,56 %
19.11.2015 17:28 8,7 C 8,3 C 7,2 C 94 % 15 lf 1010,7 hPa 0,0 l/m 0 min 0 min 0 W/m 6,3 km/h (2 Bft) 94,00 %
19.11.2015 17:30 8,7 C 8,3 C 7,2 C 94 % 15 lf 1010,7 hPa 0,0 l/m 0 min 2 min 0 W/m 6,3 km/h (2 Bft) 95,92 %
19.11.2015 17:32 8,6 C 8,3 C 7,2 C 94 % 15 lf 1010,6 hPa 0,0 l/m 0 min 2 min 0 W/m 6,3 km/h (2 Bft) 97,87 %
19.11.2015 17:34 8,6 C 8,3 C 7,2 C 94 % 15 lf 1010,7 hPa 0,0 l/m 0 min 2 min 0 W/m 4,2 km/h (1 Bft) 97,87 %
19.11.2015 17:36 8,6 C 8,3 C 7,2 C 94 % 15 lf 1010,6 hPa 0,2 l/m 0 min 2 min 0 W/m 2,1 km/h (1 Bft) 92,68 %
19.11.2015 17:38 8,6 C 8,3 C 7,2 C 94 % 15 lf 1010,6 hPa 0,0 l/m 0 min 2 min 0 W/m 4,2 km/h (1 Bft) 96,00 %
19.11.2015 17:40 8,6 C 8,3 C 7,2 C 94 % 15 lf 1010,7 hPa 0,0 l/m 0 min 2 min 0 W/m 6,3 km/h (2 Bft) 95,74 %
19.11.2015 17:42 8,6 C 8,3 C 7,2 C 94 % 15 lf 1010,9 hPa 0,0 l/m 0 min 2 min 0 W/m 4,2 km/h (1 Bft) 95,65 %
19.11.2015 17:44 8,6 C 8,3 C 7,2 C 94 % 15 lf 1010,9 hPa 0,0 l/m 0 min 2 min 0 W/m 4,2 km/h (1 Bft) 100,00 %
19.11.2015 17:46 8,6 C 8,3 C 7,2 C 94 % 15 lf 1010,9 hPa 0,0 l/m 0 min 2 min 0 W/m 4,2 km/h (1 Bft) 95,74 %
19.11.2015 17:48 8,6 C 8,3 C 7,2 C 94 % 15 lf 1010,8 hPa 0,0 l/m 0 min 2 min 0 W/m 2,1 km/h (1 Bft) 91,49 %
19.11.2015 17:50 8,6 C 8,3 C 7,2 C 94 % 15 lf 1010,8 hPa 0,2 l/m 0 min 2 min 0 W/m 6,3 km/h (2 Bft) 93,62 %
19.11.2015 17:52 8,6 C 8,3 C 7,2 C 95 % 15 lf 1010,6 hPa 0,0 l/m 0 min 2 min 0 W/m 2,1 km/h (1 Bft) 97,87 %
19.11.2015 17:54 8,6 C 8,3 C 7,2 C 95 % 15 lf 1010,6 hPa 0,2 l/m 0 min 2 min 0 W/m 4,2 km/h (1 Bft) 95,92 %
19.11.2015 17:56 8,6 C 8,3 C 7,2 C 95 % 15 lf 1010,6 hPa 0,0 l/m 0 min 2 min 0 W/m 4,2 km/h (1 Bft) 95,74 %
19.11.2015 17:58 8,6 C 8,3 C 7,2 C 95 % 15 lf 1010,5 hPa 0,0 l/m 0 min 2 min 0 W/m 2,1 km/h (1 Bft) 97,87 %
19.11.2015 18:00 8,6 C 8,3 C 7,2 C 95 % 15 lf 1010,4 hPa 0,0 l/m 0 min 2 min 0 W/m 0,0 km/h (0 Bft) 93,62 %
19.11.2015 18:02 8,6 C 8,3 C 7,2 C 95 % 15 lf 1010,4 hPa 0,0 l/m 0 min 2 min 0 W/m 4,2 km/h (1 Bft) 93,48 %
19.11.2015 18:04 8,6 C 8,3 C 7,2 C 95 % 15 lf 1010,3 hPa 0,0 l/m 0 min 2 min 0 W/m 4,2 km/h (1 Bft) 97,87 %
19.11.2015 18:06 8,6 C 8,3 C 7,2 C 95 % 15 lf 1010,4 hPa 0,0 l/m 0 min 2 min 0 W/m 4,2 km/h (1 Bft) 95,74 %
19.11.2015 18:08 8,6 C 8,3 C 7,2 C 95 % 15 lf 1010,5 hPa 0,0 l/m 0 min 2 min 0 W/m 4,2 km/h (1 Bft) 93,62 %
19.11.2015 18:10 8,6 C 8,3 C 7,2 C 95 % 15 lf 1010,5 hPa 0,0 l/m 0 min 0 min 0 W/m 2,1 km/h (1 Bft) 95,74 %
19.11.2015 18:12 8,6 C 8,3 C 7,2 C 95 % 15 lf 1010,4 hPa 0,0 l/m 0 min 2 min 0 W/m 0,0 km/h (0 Bft) 93,48 %
19.11.2015 18:14 8,6 C 8,3 C 7,2 C 95 % 15 lf 1010,2 hPa 0,0 l/m 0 min 0 min 0 W/m 0,0 km/h (0 Bft) 95,24 %
19.11.2015 18:16 8,6 C 8,3 C 7,2 C 95 % 15 lf 1010,1 hPa 0,0 l/m 0 min 2 min 0 W/m 0,0 km/h (0 Bft) 95,92 %
19.11.2015 18:18 8,6 C 8,3 C 7,2 C 95 % 15 lf 1010,1 hPa 0,0 l/m 0 min 2 min 0 W/m 4,2 km/h (1 Bft) 94,00 %
19.11.2015 18:20 8,6 C 8,3 C 7,2 C 95 % 15 lf 1010,1 hPa 0,0 l/m 0 min 2 min 0 W/m 2,1 km/h (1 Bft) 93,62 %
19.11.2015 18:22 8,6 C 8,3 C 7,2 C 95 % 15 lf 1010,1 hPa 0,0 l/m 0 min 2 min 0 W/m 2,1 km/h (1 Bft) 97,87 %
19.11.2015 18:24 8,6 C 8,3 C 7,2 C 95 % 15 lf 1010,1 hPa 0,0 l/m 0 min 2 min 0 W/m 2,1 km/h (1 Bft) 92,68 %
19.11.2015 18:26 8,6 C 8,3 C 7,2 C 95 % 15 lf 1010,0 hPa 0,0 l/m 0 min 2 min 0 W/m 2,1 km/h (1 Bft) 93,62 %
19.11.2015 18:28 8,6 C 8,3 C 7,2 C 95 % 15 lf 1009,9 hPa 0,0 l/m 0 min 2 min 0 W/m 2,1 km/h (1 Bft) 93,62 %
19.11.2015 18:30 8,6 C 8,3 C 7,2 C 95 % 15 lf 1010,0 hPa 0,0 l/m 0 min 2 min 0 W/m 4,2 km/h (1 Bft) 95,65 %
19.11.2015 18:32 8,6 C 8,3 C 7,2 C 95 % 15 lf 1009,9 hPa 0,2 l/m 0 min 2 min 0 W/m 4,2 km/h (1 Bft) 95,74 %
19.11.2015 18:34 8,6 C 8,3 C 7,2 C 95 % 15 lf 1009,9 hPa 0,0 l/m 0 min 2 min 0 W/m 2,1 km/h (1 Bft) 96,00 %
19.11.2015 18:36 8,6 C 8,3 C 7,2 C 95 % 15 lf 1009,9 hPa 0,0 l/m 0 min 2 min 0 W/m 2,1 km/h (1 Bft) 97,87 %
19.11.2015 18:38 8,6 C 8,3 C 7,2 C 95 % 15 lf 1009,9 hPa 0,0 l/m 0 min 2 min 0 W/m 4,2 km/h (1 Bft) 95,92 %
19.11.2015 18:40 8,6 C 8,3 C 7,2 C 95 % 15 lf 1010,0 hPa 0,2 l/m 0 min 2 min 0 W/m 6,3 km/h (2 Bft) 100,00 %
19.11.2015 18:42 8,6 C 8,3 C 7,2 C 95 % 15 lf 1009,9 hPa 0,0 l/m 0 min 2 min 0 W/m 4,2 km/h (1 Bft) 97,56 %
19.11.2015 18:44 8,6 C 8,3 C 7,2 C 95 % 15 lf 1009,9 hPa 0,0 l/m 0 min 2 min 0 W/m 4,2 km/h (1 Bft) 100,00 %
19.11.2015 18:46 8,6 C 8,3 C 7,2 C 95 % 15 lf 1009,9 hPa 0,0 l/m 0 min 2 min 0 W/m 0,0 km/h (0 Bft) 97,87 %
19.11.2015 18:48 8,6 C 8,3 C 7,2 C 95 % 15 lf 1009,9 hPa 0,0 l/m 0 min 2 min 0 W/m 2,1 km/h (1 Bft) 97,87 %
19.11.2015 18:50 8,6 C 8,3 C 7,2 C 95 % 15 lf 1010,0 hPa 0,0 l/m 0 min 2 min 0 W/m 4,2 km/h (1 Bft) 93,62 %
19.11.2015 18:52 8,5 C 8,3 C 7,2 C 95 % 15 lf 1010,0 hPa 0,2 l/m 0 min 2 min 0 W/m 2,1 km/h (1 Bft) 100,00 %
19.11.2015 18:54 8,5 C 8,3 C 7,2 C 95 % 15 lf 1010,0 hPa 0,0 l/m 0 min 2 min 0 W/m 2,1 km/h (1 Bft) 93,62 %
19.11.2015 18:56 8,5 C 8,3 C 7,2 C 95 % 15 lf 1010,0 hPa 0,0 l/m 0 min 2 min 0 W/m 2,1 km/h (1 Bft) 100,00 %
19.11.2015 18:58 8,5 C 8,3 C 7,2 C 95 % 15 lf 1009,9 hPa 0,2 l/m 0 min 2 min 0 W/m 0,0 km/h (0 Bft) 97,87 %
19.11.2015 19:00 8,5 C 8,3 C 7,2 C 95 % 15 lf 1009,8 hPa 0,0 l/m 0 min 2 min 0 W/m 0,0 km/h (0 Bft) 97,87 %
19.11.2015 19:02 8,5 C 8,3 C 7,2 C 95 % 15 lf 1009,9 hPa 0,0 l/m 0 min 2 min 0 W/m 4,2 km/h (1 Bft) 100,00 %
19.11.2015 19:04 8,5 C 8,3 C 7,2 C 95 % 15 lf 1009,6 hPa 0,0 l/m 0 min 2 min 0 W/m 2,1 km/h (1 Bft) 100,00 %
19.11.2015 19:06 8,5 C 8,3 C 7,2 C 95 % 15 lf 1009,7 hPa 0,0 l/m 0 min 2 min 0 W/m 2,1 km/h (1 Bft) 100,00 %
19.11.2015 19:08 8,5 C 8,3 C 7,2 C 95 % 15 lf 1009,9 hPa 0,0 l/m 0 min 2 min 0 W/m 2,1 km/h (1 Bft) 93,62 %
19.11.2015 19:10 8,5 C 8,3 C 7,2 C 95 % 15 lf 1009,9 hPa 0,2 l/m 0 min 2 min 0 W/m 6,3 km/h (2 Bft) 97,87 %
19.11.2015 19:12 8,5 C 8,3 C 7,2 C 95 % 15 lf 1009,9 hPa 0,0 l/m 0 min 2 min 0 W/m 8,4 km/h (2 Bft) 97,56 %
19.11.2015 19:14 8,5 C 8,3 C 7,2 C 95 % 15 lf 1010,0 hPa 0,0 l/m 0 min 2 min 0 W/m 6,3 km/h (2 Bft) 100,00 %
19.11.2015 19:16 8,5 C 8,3 C 7,2 C 95 % 15 lf 1009,7 hPa 0,0 l/m 0 min 2 min 0 W/m 6,3 km/h (2 Bft) 100,00 %
19.11.2015 19:18 8,5 C 8,3 C 7,2 C 95 % 15 lf 1009,7 hPa 0,0 l/m 0 min 2 min 0 W/m 4,2 km/h (1 Bft) 97,87 %
19.11.2015 19:20 8,5 C 8,3 C 7,2 C 95 % 15 lf 1009,9 hPa 0,2 l/m 0 min 2 min 0 W/m 4,2 km/h (1 Bft) 100,00 %
19.11.2015 19:22 8,5 C 8,3 C 7,2 C 95 % 15 lf 1009,8 hPa 0,0 l/m 0 min 2 min 0 W/m 6,3 km/h (2 Bft) 97,87 %
19.11.2015 19:24 8,5 C 7,8 C 7,2 C 95 % 15 lf 1009,8 hPa 0,0 l/m 0 min 2 min 0 W/m 6,3 km/h (2 Bft) 98,00 %
19.11.2015 19:26 8,5 C 7,8 C 7,2 C 95 % 15 lf 1009,7 hPa 0,0 l/m 0 min 2 min 0 W/m 4,2 km/h (1 Bft) 97,87 %
19.11.2015 19:28 8,5 C 7,8 C 7,2 C 95 % 15 lf 1009,7 hPa 0,0 l/m 0 min 2 min 0 W/m 4,2 km/h (1 Bft) 89,13 %
19.11.2015 19:30 8,5 C 7,8 C 7,2 C 95 % 15 lf 1009,8 hPa 0,2 l/m 0 min 2 min 0 W/m 4,2 km/h (1 Bft) 95,74 %
19.11.2015 19:32 8,4 C 7,8 C 7,2 C 95 % 15 lf 1009,7 hPa 0,0 l/m 0 min 2 min 0 W/m 6,3 km/h (2 Bft) 95,74 %
19.11.2015 19:34 8,4 C 7,8 C 7,2 C 95 % 15 lf 1009,4 hPa 0,2 l/m 0 min 2 min 0 W/m 2,1 km/h (1 Bft) 95,74 %
19.11.2015 19:36 8,4 C 7,8 C 7,2 C 95 % 15 lf 1009,5 hPa 0,0 l/m 0 min 2 min 0 W/m 4,2 km/h (1 Bft) 91,49 %
19.11.2015 19:38 8,4 C 7,8 C 7,2 C 95 % 15 lf 1009,5 hPa 0,0 l/m 0 min 2 min 0 W/m 4,2 km/h (1 Bft) 93,88 %
19.11.2015 19:40 8,4 C 7,8 C 7,2 C 95 % 15 lf 1009,7 hPa 0,0 l/m 0 min 2 min 0 W/m 6,3 km/h (2 Bft) 93,62 %
19.11.2015 19:42 8,4 C 7,8 C 7,2 C 95 % 15 lf 1009,9 hPa 0,0 l/m 0 min 2 min 0 W/m 6,3 km/h (2 Bft) 93,62 %
19.11.2015 19:44 8,4 C 7,8 C 7,2 C 95 % 15 lf 1009,8 hPa 0,0 l/m 0 min 2 min 0 W/m 8,4 km/h (2 Bft) 93,62 %
19.11.2015 19:46 8,4 C 7,8 C 7,2 C 95 % 15 lf 1009,8 hPa 0,0 l/m 0 min 2 min 0 W/m 6,3 km/h (2 Bft) 93,48 %
19.11.2015 19:48 8,4 C 7,8 C 7,2 C 95 % 15 lf 1009,9 hPa 0,0 l/m 0 min 2 min 0 W/m 8,4 km/h (2 Bft) 91,49 %
19.11.2015 19:50 8,4 C 7,8 C 7,2 C 95 % 15 lf 1010,0 hPa 0,2 l/m 0 min 2 min 0 W/m 8,4 km/h (2 Bft) 95,74 %
19.11.2015 19:52 8,4 C 7,8 C 7,2 C 95 % 15 lf 1010,0 hPa 0,0 l/m 0 min 2 min 0 W/m 8,4 km/h (2 Bft) 93,62 %
19.11.2015 19:54 8,4 C 7,8 C 7,2 C 95 % 15 lf 1009,9 hPa 0,0 l/m 0 min 2 min 0 W/m 6,3 km/h (2 Bft) 91,49 %
19.11.2015 19:56 8,3 C 7,8 C 7,2 C 95 % 15 lf 1009,9 hPa 0,2 l/m 0 min 2 min 0 W/m 6,3 km/h (2 Bft) 89,36 %
19.11.2015 19:58 8,3 C 7,8 C 7,2 C 95 % 15 lf 1009,7 hPa 0,0 l/m 0 min 2 min 0 W/m 4,2 km/h (1 Bft) 93,48 %
19.11.2015 20:00 8,3 C 7,8 C 7,2 C 95 % 15 lf 1009,7 hPa 0,0 l/m 0 min 2 min 0 W/m 8,4 km/h (2 Bft) 91,49 %
19.11.2015 20:02 8,3 C 7,8 C 7,2 C 95 % 15 lf 1009,5 hPa 0,2 l/m 0 min 2 min 0 W/m 6,3 km/h (2 Bft) 91,49 %
19.11.2015 20:04 8,3 C 7,8 C 7,2 C 95 % 15 lf 1009,6 hPa 0,0 l/m 0 min 2 min 0 W/m 6,3 km/h (2 Bft) 91,49 %
19.11.2015 20:06 8,3 C 7,8 C 7,2 C 95 % 15 lf 1009,7 hPa 0,0 l/m 0 min 2 min 0 W/m 4,2 km/h (1 Bft) 89,36 %
19.11.2015 20:08 8,3 C 7,8 C 6,7 C 95 % 15 lf 1009,8 hPa 0,2 l/m 0 min 2 min 0 W/m 6,3 km/h (2 Bft) 89,36 %
19.11.2015 20:10 8,3 C 7,8 C 7,2 C 95 % 15 lf 1009,7 hPa 0,0 l/m 0 min 2 min 0 W/m 6,3 km/h (2 Bft) 97,56 %
19.11.2015 20:12 8,3 C 7,8 C 6,7 C 95 % 15 lf 1009,9 hPa 0,0 l/m 0 min 2 min 0 W/m 8,4 km/h (2 Bft) 95,74 %
19.11.2015 20:14 8,2 C 7,8 C 6,7 C 95 % 15 lf 1010,0 hPa 0,2 l/m 0 min 2 min 0 W/m 8,4 km/h (2 Bft) 93,48 %
19.11.2015 20:16 8,2 C 7,8 C 7,2 C 95 % 15 lf 1010,0 hPa 0,0 l/m 0 min 2 min 0 W/m 8,4 km/h (2 Bft) 95,74 %
19.11.2015 20:18 8,2 C 7,8 C 6,7 C 95 % 15 lf 1010,0 hPa 0,2 l/m 0 min 2 min 0 W/m 8,4 km/h (2 Bft) 93,62 %
19.11.2015 20:20 8,2 C 7,8 C 7,2 C 95 % 15 lf 1010,0 hPa 0,0 l/m 0 min 2 min 0 W/m 4,2 km/h (1 Bft) 93,62 %
19.11.2015 20:22 8,2 C 7,8 C 6,7 C 95 % 15 lf 1010,0 hPa 0,0 l/m 0 min 2 min 0 W/m 8,4 km/h (2 Bft) 97,87 %
19.11.2015 20:24 8,2 C 7,8 C 6,7 C 95 % 15 lf 1009,9 hPa 0,2 l/m 0 min 2 min 0 W/m 4,2 km/h (1 Bft) 97,87 %
19.11.2015 20:26 8,2 C 7,8 C 6,7 C 95 % 15 lf 1009,6 hPa 0,0 l/m 0 min 2 min 0 W/m 4,2 km/h (1 Bft) 100,00 %
19.11.2015 20:28 8,2 C 7,8 C 6,7 C 95 % 15 lf 1009,6 hPa 0,0 l/m 0 min 2 min 0 W/m 6,3 km/h (2 Bft) 97,87 %
19.11.2015 20:30 8,2 C 7,8 C 6,7 C 95 % 15 lf 1009,7 hPa 0,0 l/m 0 min 0 min 0 W/m 6,3 km/h (2 Bft) 97,87 %
19.11.2015 20:32 8,2 C 7,8 C 6,7 C 96 % 15 lf 1009,9 hPa 0,0 l/m 0 min 2 min 0 W/m 4,2 km/h (1 Bft) 100,00 %
19.11.2015 20:34 8,2 C 7,8 C 6,7 C 96 % 15 lf 1010,0 hPa 0,0 l/m 0 min 2 min 0 W/m 8,4 km/h (2 Bft) 100,00 %
19.11.2015 20:36 8,2 C 7,8 C 6,7 C 96 % 15 lf 1010,0 hPa 0,0 l/m 0 min 2 min 0 W/m 6,3 km/h (2 Bft) 97,87 %
19.11.2015 20:38 8,2 C 7,8 C 6,7 C 96 % 15 lf 1010,1 hPa 0,0 l/m 0 min 2 min 0 W/m 6,3 km/h (2 Bft) 95,92 %
19.11.2015 20:40 8,1 C 7,8 C 6,7 C 96 % 15 lf 1010,0 hPa 0,0 l/m 0 min 2 min 0 W/m 4,2 km/h (1 Bft) 100,00 %
19.11.2015 20:42 8,1 C 7,8 C 6,7 C 96 % 15 lf 1010,0 hPa 0,0 l/m 0 min 2 min 0 W/m 6,3 km/h (2 Bft) 100,00 %
19.11.2015 20:44 8,1 C 7,8 C 6,7 C 96 % 15 lf 1010,0 hPa 0,0 l/m 0 min 2 min 0 W/m 6,3 km/h (2 Bft) 100,00 %
19.11.2015 20:46 8,1 C 7,8 C 6,7 C 96 % 15 lf 1010,0 hPa 0,0 l/m 0 min 2 min 0 W/m 6,3 km/h (2 Bft) 100,00 %
19.11.2015 20:48 8,1 C 7,8 C 6,7 C 96 % 15 lf 1010,0 hPa 0,0 l/m 0 min 0 min 0 W/m 8,4 km/h (2 Bft) 97,87 %
19.11.2015 20:50 8,1 C 7,8 C 6,7 C 96 % 15 lf 1010,0 hPa 0,0 l/m 0 min 0 min 0 W/m 8,4 km/h (2 Bft) 97,83 %
19.11.2015 20:52 8,1 C 7,8 C 6,7 C 96 % 15 lf 1010,0 hPa 0,0 l/m 0 min 0 min 0 W/m 8,4 km/h (2 Bft) 93,62 %
19.11.2015 20:54 8,0 C 7,8 C 6,7 C 96 % 15 lf 1010,0 hPa 0,0 l/m 0 min 0 min 0 W/m 8,4 km/h (2 Bft) 100,00 %
19.11.2015 20:56 8,0 C 7,8 C 6,7 C 96 % 15 lf 1010,0 hPa 0,0 l/m 0 min 0 min 0 W/m 8,4 km/h (2 Bft) 97,87 %
19.11.2015 20:58 8,0 C 7,8 C 6,7 C 96 % 15 lf 1010,1 hPa 0,0 l/m 0 min 0 min 0 W/m 8,4 km/h (2 Bft) 100,00 %
19.11.2015 21:00 8,0 C 7,8 C 6,7 C 96 % 15 lf 1009,9 hPa 0,0 l/m 0 min 0 min 0 W/m 10,5 km/h (2 Bft) 97,87 %
19.11.2015 21:02 8,0 C 7,8 C 6,7 C 96 % 15 lf 1010,0 hPa 0,0 l/m 0 min 0 min 0 W/m 8,4 km/h (2 Bft) 100,00 %
19.11.2015 21:04 7,9 C 7,8 C 6,7 C 96 % 15 lf 1010,0 hPa 0,0 l/m 0 min 0 min 0 W/m 8,4 km/h (2 Bft) 100,00 %
19.11.2015 21:06 7,9 C 7,8 C 6,7 C 96 % 15 lf 1010,0 hPa 0,0 l/m 0 min 0 min 0 W/m 6,3 km/h (2 Bft) 100,00 %
19.11.2015 21:08 7,9 C 7,8 C 6,7 C 96 % 15 lf 1010,0 hPa 0,0 l/m 0 min 0 min 0 W/m 10,5 km/h (2 Bft) 100,00 %
19.11.2015 21:10 7,9 C 7,8 C 6,7 C 96 % 15 lf 1010,0 hPa 0,0 l/m 0 min 0 min 0 W/m 6,3 km/h (2 Bft) 97,87 %
19.11.2015 21:12 7,9 C 7,8 C 6,7 C 96 % 15 lf 1010,0 hPa 0,0 l/m 0 min 0 min 0 W/m 10,5 km/h (2 Bft) 100,00 %
19.11.2015 21:14 7,9 C 7,8 C 6,7 C 96 % 15 lf 1010,1 hPa 0,0 l/m 0 min 0 min 0 W/m 10,5 km/h (2 Bft) 100,00 %
19.11.2015 21:16 7,9 C 7,8 C 6,7 C 96 % 15 lf 1010,1 hPa 0,0 l/m 0 min 0 min 0 W/m 12,6 km/h (3 Bft) 100,00 %
19.11.2015 21:18 7,9 C 7,8 C 6,7 C 96 % 15 lf 1010,0 hPa 0,0 l/m 0 min 0 min 0 W/m 10,5 km/h (2 Bft) 97,87 %
19.11.2015 21:20 7,9 C 7,8 C 6,7 C 96 % 15 lf 1010,1 hPa 0,0 l/m 0 min 0 min 0 W/m 6,3 km/h (2 Bft) 97,96 %
19.11.2015 21:22 7,9 C 7,8 C 6,7 C 96 % 15 lf 1010,1 hPa 0,0 l/m 0 min 0 min 0 W/m 10,5 km/h (2 Bft) 100,00 %
19.11.2015 21:24 7,8 C 7,8 C 6,7 C 96 % 15 lf 1010,0 hPa 0,0 l/m 0 min 0 min 0 W/m 6,3 km/h (2 Bft) 97,87 %
19.11.2015 21:26 7,8 C 7,8 C 6,7 C 96 % 15 lf 1010,1 hPa 0,0 l/m 0 min 0 min 0 W/m 6,3 km/h (2 Bft) 95,12 %
19.11.2015 21:28 7,8 C 7,2 C 6,7 C 96 % 15 lf 1010,1 hPa 0,0 l/m 0 min 0 min 0 W/m 12,6 km/h (3 Bft) 98,00 %
19.11.2015 21:30 7,8 C 7,2 C 6,7 C 96 % 15 lf 1010,1 hPa 0,0 l/m 0 min 0 min 0 W/m 6,3 km/h (2 Bft) 96,00 %
19.11.2015 21:32 7,8 C 7,2 C 6,7 C 96 % 15 lf 1010,3 hPa 0,0 l/m 0 min 0 min 0 W/m 8,4 km/h (2 Bft) 97,83 %
19.11.2015 21:34 7,8 C 7,2 C 6,7 C 96 % 15 lf 1010,4 hPa 0,0 l/m 0 min 0 min 0 W/m 8,4 km/h (2 Bft) 90,48 %
19.11.2015 21:36 7,8 C 7,2 C 6,7 C 96 % 15 lf 1010,3 hPa 0,0 l/m 0 min 0 min 0 W/m 8,4 km/h (2 Bft) 97,96 %
19.11.2015 21:38 7,8 C 7,2 C 6,7 C 96 % 15 lf 1010,3 hPa 0,0 l/m 0 min 0 min 0 W/m 10,5 km/h (2 Bft) 98,00 %
19.11.2015 21:40 7,8 C 7,8 C 6,7 C 96 % 15 lf 1010,4 hPa 0,0 l/m 0 min 0 min 0 W/m 8,4 km/h (2 Bft) 97,87 %
19.11.2015 21:42 7,8 C 7,2 C 6,7 C 96 % 15 lf 1010,5 hPa 0,0 l/m 0 min 0 min 0 W/m 8,4 km/h (2 Bft) 91,49 %
19.11.2015 21:44 7,8 C 7,8 C 6,7 C 96 % 15 lf 1010,5 hPa 0,0 l/m 0 min 0 min 0 W/m 8,4 km/h (2 Bft) 95,65 %
19.11.2015 21:46 7,8 C 7,8 C 6,7 C 96 % 15 lf 1010,5 hPa 0,0 l/m 0 min 0 min 0 W/m 8,4 km/h (2 Bft) 92,86 %
19.11.2015 21:48 7,7 C 7,8 C 6,7 C 96 % 15 lf 1010,6 hPa 0,0 l/m 0 min 0 min 0 W/m 12,6 km/h (3 Bft) 91,30 %
19.11.2015 21:50 7,7 C 7,8 C 6,7 C 96 % 15 lf 1010,6 hPa 0,0 l/m 0 min 0 min 0 W/m 8,4 km/h (2 Bft) 93,62 %
19.11.2015 21:52 7,7 C 7,8 C 6,7 C 96 % 15 lf 1010,6 hPa 0,0 l/m 0 min 0 min 0 W/m 10,5 km/h (2 Bft) 95,74 %
19.11.2015 21:54 7,7 C 7,8 C 6,7 C 96 % 15 lf 1010,6 hPa 0,0 l/m 0 min 0 min 0 W/m 6,3 km/h (2 Bft) 93,62 %
19.11.2015 21:56 7,7 C 7,8 C 6,7 C 96 % 15 lf 1010,6 hPa 0,0 l/m 0 min 0 min 0 W/m 8,4 km/h (2 Bft) 95,74 %
19.11.2015 21:58 7,8 C 7,8 C 6,7 C 96 % 15 lf 1010,6 hPa 0,0 l/m 0 min 0 min 0 W/m 10,5 km/h (2 Bft) 91,49 %
19.11.2015 22:00 7,7 C 7,8 C 6,7 C 96 % 15 lf 1010,6 hPa 0,0 l/m 0 min 0 min 0 W/m 12,6 km/h (3 Bft) 95,65 %
19.11.2015 22:02 7,8 C 7,8 C 6,7 C 96 % 15 lf 1010,7 hPa 0,0 l/m 0 min 0 min 0 W/m 10,5 km/h (2 Bft) 96,00 %
19.11.2015 22:04 7,8 C 7,8 C 6,7 C 96 % 15 lf 1010,8 hPa 0,0 l/m 0 min 0 min 0 W/m 8,4 km/h (2 Bft) 93,62 %
19.11.2015 22:06 7,8 C 7,8 C 6,7 C 96 % 15 lf 1010,8 hPa 0,0 l/m 0 min 0 min 0 W/m 8,4 km/h (2 Bft) 95,74 %
19.11.2015 22:08 7,8 C 7,8 C 6,7 C 96 % 15 lf 1010,8 hPa 0,0 l/m 0 min 0 min 0 W/m 8,4 km/h (2 Bft) 93,88 %
19.11.2015 22:10 7,8 C 7,8 C 6,7 C 96 % 15 lf 1010,9 hPa 0,0 l/m 0 min 0 min 0 W/m 10,5 km/h (2 Bft) 91,49 %
19.11.2015 22:12 7,8 C 7,8 C 6,7 C 96 % 15 lf 1010,8 hPa 0,0 l/m 0 min 0 min 0 W/m 8,4 km/h (2 Bft) 92,68 %
19.11.2015 22:14 7,8 C 7,8 C 6,7 C 96 % 15 lf 1010,8 hPa 0,0 l/m 0 min 0 min 0 W/m 12,6 km/h (3 Bft) 92,00 %
19.11.2015 22:16 7,8 C 7,8 C 6,7 C 96 % 15 lf 1010,8 hPa 0,0 l/m 0 min 0 min 0 W/m 14,6 km/h (3 Bft) 93,62 %
19.11.2015 22:18 7,8 C 7,8 C 6,7 C 96 % 15 lf 1010,8 hPa 0,0 l/m 0 min 0 min 0 W/m 12,6 km/h (3 Bft) 95,74 %
19.11.2015 22:20 7,8 C 7,8 C 6,7 C 96 % 15 lf 1010,9 hPa 0,0 l/m 0 min 0 min 0 W/m 12,6 km/h (3 Bft) 93,62 %
19.11.2015 22:22 7,8 C 7,8 C 6,7 C 96 % 15 lf 1010,8 hPa 0,0 l/m 0 min 0 min 0 W/m 10,5 km/h (2 Bft) 91,30 %
19.11.2015 22:24 7,8 C 7,8 C 6,7 C 96 % 15 lf 1010,8 hPa 0,0 l/m 0 min 0 min 0 W/m 12,6 km/h (3 Bft) 96,00 %
19.11.2015 22:26 7,8 C 7,8 C 6,7 C 96 % 15 lf 1010,8 hPa 0,0 l/m 0 min 0 min 0 W/m 12,6 km/h (3 Bft) 95,74 %
19.11.2015 22:28 7,8 C 7,8 C 6,7 C 96 % 15 lf 1010,8 hPa 0,0 l/m 0 min 0 min 0 W/m 10,5 km/h (2 Bft) 93,62 %
19.11.2015 22:30 7,8 C 7,8 C 6,7 C 97 % 15 lf 1010,8 hPa 0,0 l/m 0 min 0 min 0 W/m 10,5 km/h (2 Bft) 91,30 %
19.11.2015 22:32 7,8 C 7,8 C 6,7 C 96 % 15 lf 1010,9 hPa 0,0 l/m 0 min 0 min 0 W/m 14,6 km/h (3 Bft) 91,49 %
19.11.2015 22:34 7,8 C 7,8 C 6,7 C 97 % 15 lf 1011,0 hPa 0,0 l/m 0 min 0 min 0 W/m 14,6 km/h (3 Bft) 92,86 %
19.11.2015 22:36 7,8 C 7,8 C 6,7 C 97 % 15 lf 1011,0 hPa 0,0 l/m 0 min 0 min 0 W/m 16,7 km/h (3 Bft) 89,13 %
19.11.2015 22:38 7,8 C 7,8 C 6,7 C 96 % 15 lf 1010,9 hPa 0,0 l/m 0 min 0 min 0 W/m 18,8 km/h (3 Bft) 93,62 %
19.11.2015 22:40 7,8 C 7,8 C 6,7 C 96 % 15 lf 1010,9 hPa 0,0 l/m 0 min 0 min 0 W/m 16,7 km/h (3 Bft) 93,62 %
19.11.2015 22:42 7,8 C 7,8 C 6,7 C 96 % 15 lf 1010,9 hPa 0,0 l/m 0 min 0 min 0 W/m 14,6 km/h (3 Bft) 96,00 %
19.11.2015 22:44 7,8 C 7,8 C 6,7 C 96 % 15 lf 1010,9 hPa 0,0 l/m 0 min 0 min 0 W/m 18,8 km/h (3 Bft) 91,49 %
19.11.2015 22:46 7,8 C 7,8 C 6,7 C 96 % 15 lf 1010,9 hPa 0,0 l/m 0 min 0 min 0 W/m 16,7 km/h (3 Bft) 93,48 %
19.11.2015 22:48 7,8 C 7,8 C 6,7 C 96 % 15 lf 1010,9 hPa 0,0 l/m 0 min 0 min 0 W/m 14,6 km/h (3 Bft) 93,62 %
19.11.2015 22:50 7,8 C 7,8 C 6,7 C 96 % 15 lf 1011,0 hPa 0,0 l/m 0 min 0 min 0 W/m 14,6 km/h (3 Bft) 93,62 %
19.11.2015 22:52 7,8 C 7,8 C 6,7 C 97 % 15 lf 1010,8 hPa 0,0 l/m 0 min 0 min 0 W/m 16,7 km/h (3 Bft) 89,36 %
19.11.2015 22:54 7,8 C 7,8 C 6,7 C 97 % 15 lf 1011,0 hPa 0,0 l/m 0 min 0 min 0 W/m 20,9 km/h (4 Bft) 95,92 %
19.11.2015 22:56 7,8 C 7,8 C 6,7 C 97 % 15 lf 1010,8 hPa 0,0 l/m 0 min 0 min 0 W/m 18,8 km/h (3 Bft) 91,49 %
19.11.2015 22:58 7,8 C 7,8 C 6,7 C 97 % 15 lf 1010,8 hPa 0,0 l/m 0 min 0 min 0 W/m 12,6 km/h (3 Bft) 91,49 %
19.11.2015 23:00 7,8 C 7,8 C 6,7 C 97 % 15 lf 1010,8 hPa 0,0 l/m 0 min 0 min 0 W/m 16,7 km/h (3 Bft) 97,87 %
19.11.2015 23:02 7,8 C 7,8 C 6,7 C 97 % 15 lf 1010,8 hPa 0,0 l/m 0 min 0 min 0 W/m 18,8 km/h (3 Bft) 95,74 %
19.11.2015 23:04 7,8 C 7,8 C 6,7 C 97 % 15 lf 1010,8 hPa 0,0 l/m 0 min 0 min 0 W/m 20,9 km/h (4 Bft) 93,48 %
19.11.2015 23:06 7,8 C 7,8 C 6,7 C 97 % 15 lf 1010,7 hPa 0,0 l/m 0 min 0 min 0 W/m 18,8 km/h (3 Bft) 95,74 %
19.11.2015 23:08 7,8 C 7,8 C 6,7 C 97 % 15 lf 1010,6 hPa 0,0 l/m 0 min 0 min 0 W/m 14,6 km/h (3 Bft) 97,87 %
19.11.2015 23:10 7,8 C 7,8 C 6,7 C 97 % 15 lf 1010,7 hPa 0,0 l/m 0 min 0 min 0 W/m 12,6 km/h (3 Bft) 93,62 %
19.11.2015 23:12 7,8 C 7,8 C 6,7 C 97 % 15 lf 1010,7 hPa 0,0 l/m 0 min 0 min 0 W/m 16,7 km/h (3 Bft) 97,56 %
19.11.2015 23:14 7,8 C 7,8 C 6,7 C 97 % 15 lf 1010,7 hPa 0,0 l/m 0 min 0 min 0 W/m 16,7 km/h (3 Bft) 96,00 %
19.11.2015 23:16 7,8 C 7,8 C 6,7 C 97 % 15 lf 1010,7 hPa 0,0 l/m 0 min 0 min 0 W/m 12,6 km/h (3 Bft) 92,00 %
19.11.2015 23:18 7,8 C 7,8 C 6,7 C 97 % 15 lf 1010,7 hPa 0,0 l/m 0 min 0 min 0 W/m 18,8 km/h (3 Bft) 97,83 %
19.11.2015 23:20 7,8 C 7,8 C 6,7 C 97 % 15 lf 1010,7 hPa 0,0 l/m 0 min 0 min 0 W/m 23,0 km/h (4 Bft) 100,00 %
19.11.2015 23:22 7,8 C 7,8 C 6,7 C 97 % 15 lf 1010,6 hPa 0,0 l/m 0 min 0 min 0 W/m 16,7 km/h (3 Bft) 100,00 %
19.11.2015 23:24 7,8 C 7,8 C 6,7 C 97 % 15 lf 1010,7 hPa 0,0 l/m 0 min 0 min 0 W/m 16,7 km/h (3 Bft) 100,00 %
19.11.2015 23:26 7,8 C 7,8 C 6,7 C 97 % 15 lf 1010,7 hPa 0,0 l/m 0 min 0 min 0 W/m 20,9 km/h (4 Bft) 95,74 %
19.11.2015 23:28 7,8 C 7,8 C 6,7 C 97 % 15 lf 1010,5 hPa 0,0 l/m 0 min 0 min 0 W/m 16,7 km/h (3 Bft) 95,65 %
19.11.2015 23:30 7,8 C 7,8 C 6,7 C 97 % 15 lf 1010,5 hPa 0,0 l/m 0 min 0 min 0 W/m 18,8 km/h (3 Bft) 97,87 %
19.11.2015 23:32 7,8 C 7,8 C 6,7 C 97 % 15 lf 1010,5 hPa 0,0 l/m 0 min 0 min 0 W/m 16,7 km/h (3 Bft) 97,87 %
19.11.2015 23:34 7,8 C 7,8 C 6,7 C 97 % 15 lf 1010,5 hPa 0,0 l/m 0 min 0 min 0 W/m 18,8 km/h (3 Bft) 97,87 %
19.11.2015 23:36 7,8 C 7,8 C 6,7 C 97 % 15 lf 1010,5 hPa 0,0 l/m 0 min 0 min 0 W/m 16,7 km/h (3 Bft) 95,74 %
19.11.2015 23:38 7,8 C 7,8 C 6,7 C 97 % 15 lf 1010,6 hPa 0,0 l/m 0 min 0 min 0 W/m 18,8 km/h (3 Bft) 93,62 %
19.11.2015 23:40 7,8 C 7,8 C 6,7 C 97 % 15 lf 1010,5 hPa 0,0 l/m 0 min 0 min 0 W/m 23,0 km/h (4 Bft) 95,12 %
19.11.2015 23:42 7,8 C 7,8 C 6,7 C 97 % 15 lf 1010,5 hPa 0,0 l/m 0 min 0 min 0 W/m 16,7 km/h (3 Bft) 96,00 %
19.11.2015 23:44 7,8 C 7,8 C 6,7 C 97 % 15 lf 1010,5 hPa 0,0 l/m 0 min 0 min 0 W/m 14,6 km/h (3 Bft) 97,83 %
19.11.2015 23:46 7,8 C 7,8 C 6,7 C 97 % 15 lf 1010,5 hPa 0,0 l/m 0 min 0 min 0 W/m 14,6 km/h (3 Bft) 95,74 %
19.11.2015 23:48 7,8 C 7,8 C 6,7 C 97 % 15 lf 1010,7 hPa 0,0 l/m 0 min 0 min 0 W/m 16,7 km/h (3 Bft) 97,87 %
19.11.2015 23:50 7,8 C 7,8 C 6,7 C 97 % 15 lf 1010,7 hPa 0,0 l/m 0 min 0 min 0 W/m 20,9 km/h (4 Bft) 97,87 %
19.11.2015 23:52 7,8 C 7,8 C 6,7 C 97 % 15 lf 1010,7 hPa 0,0 l/m 0 min 0 min 0 W/m 12,6 km/h (3 Bft) 97,87 %
19.11.2015 23:54 7,8 C 7,8 C 6,7 C 97 % 15 lf 1010,7 hPa 0,0 l/m 0 min 0 min 0 W/m 16,7 km/h (3 Bft) 91,84 %
19.11.2015 23:56 7,8 C 7,8 C 6,7 C 97 % 15 lf 1010,5 hPa 0,0 l/m 0 min 0 min 0 W/m 18,8 km/h (3 Bft) 95,74 %
19.11.2015 23:58 7,8 C 7,8 C 6,7 C 97 % 15 lf 1010,5 hPa 0,0 l/m 0 min 0 min 0 W/m 18,8 km/h (3 Bft) 95,74 %
_ Min-Zeit 21:44 21:28 20:08 00:00 00:00 19:34 - - - - 18:00 02:52
Minimum _ 7,7 C 7,2 C 6,7 C 77 % 0 lf 1009,4 hPa - - - - 0,0 km/h (0 Bft) 85,11 %
_ Max-Zeit 00:00 10:10 00:00 22:30 03:40 11:44 14:02 09:10 03:42 10:10 02:26 00:06
Maximum _ 13,7 C 14,4 C 12,2 C 97 % 15 lf 1013,5 hPa 0,2 l/m 2 min 2 min 200 W/m 64,9 km/h
W-SW (8 Bft)
100,00 %
Durchschnitt _ 11,3 C 11,2 C 9,8 C 87 % 7 lf 1011,5 hPa #7,2 l/m #30 min. #7:38 h 55 W/m 27,1 km/h (4 Bft) 95,93 %
© 2015 W. Hausmann